Wetterdaten: Mittwoch, 22.04.2015
Datum Zeit Temp. Aussen +5cm Feuchte Auss Luftdruck Regen Sonnenschein Regendauer Solar Windben
22.04.2015 00:00 9,6 C 8,3 C 78 % 1030,6 hPa 0,0 l/m 0 min 0 min 0 W/m 14,6 km/h (3 Bft)
22.04.2015 00:02 9,6 C 7,8 C 79 % 1030,6 hPa 0,0 l/m 0 min 0 min 0 W/m 16,7 km/h (3 Bft)
22.04.2015 00:06 9,4 C 7,8 C 79 % 1030,6 hPa 0,0 l/m 0 min 0 min 0 W/m 20,9 km/h (4 Bft)
22.04.2015 00:08 9,4 C 7,8 C 79 % 1030,7 hPa 0,0 l/m 0 min 0 min 0 W/m 23,0 km/h (4 Bft)
22.04.2015 00:10 9,4 C 7,8 C 79 % 1030,6 hPa 0,0 l/m 0 min 0 min 0 W/m 18,8 km/h (3 Bft)
22.04.2015 00:12 9,3 C 7,8 C 80 % 1030,6 hPa 0,0 l/m 0 min 0 min 0 W/m 18,8 km/h (3 Bft)
22.04.2015 00:14 9,3 C 7,8 C 80 % 1030,6 hPa 0,0 l/m 0 min 0 min 0 W/m 14,6 km/h (3 Bft)
22.04.2015 00:16 9,2 C 7,8 C 80 % 1030,6 hPa 0,0 l/m 0 min 0 min 0 W/m 10,5 km/h (2 Bft)
22.04.2015 00:18 9,2 C 7,8 C 80 % 1030,6 hPa 0,0 l/m 0 min 0 min 0 W/m 12,6 km/h (3 Bft)
22.04.2015 00:20 9,1 C 7,8 C 80 % 1030,6 hPa 0,0 l/m 0 min 0 min 0 W/m 14,6 km/h (3 Bft)
22.04.2015 00:22 9,1 C 7,8 C 80 % 1030,5 hPa 0,0 l/m 0 min 0 min 0 W/m 12,6 km/h (3 Bft)
22.04.2015 00:24 9,1 C 7,8 C 81 % 1030,6 hPa 0,0 l/m 0 min 0 min 0 W/m 14,6 km/h (3 Bft)
22.04.2015 00:26 9,0 C 7,8 C 81 % 1030,6 hPa 0,0 l/m 0 min 0 min 0 W/m 14,6 km/h (3 Bft)
22.04.2015 00:28 8,9 C 7,2 C 81 % 1030,6 hPa 0,0 l/m 0 min 0 min 0 W/m 20,9 km/h (4 Bft)
22.04.2015 00:30 8,9 C 7,2 C 81 % 1030,5 hPa 0,0 l/m 0 min 0 min 0 W/m 12,6 km/h (3 Bft)
22.04.2015 00:32 8,8 C 7,2 C 81 % 1030,6 hPa 0,0 l/m 0 min 0 min 0 W/m 12,6 km/h (3 Bft)
22.04.2015 00:34 8,7 C 7,2 C 81 % 1030,6 hPa 0,0 l/m 0 min 0 min 0 W/m 12,6 km/h (3 Bft)
22.04.2015 00:36 8,7 C 7,2 C 81 % 1030,6 hPa 0,0 l/m 0 min 0 min 0 W/m 18,8 km/h (3 Bft)
22.04.2015 00:38 8,7 C 7,2 C 81 % 1030,6 hPa 0,0 l/m 0 min 0 min 0 W/m 20,9 km/h (4 Bft)
22.04.2015 00:40 8,6 C 7,2 C 81 % 1030,7 hPa 0,0 l/m 0 min 0 min 0 W/m 23,0 km/h (4 Bft)
22.04.2015 00:42 8,5 C 7,2 C 82 % 1030,7 hPa 0,0 l/m 0 min 0 min 0 W/m 18,8 km/h (3 Bft)
22.04.2015 00:44 8,4 C 7,2 C 82 % 1030,7 hPa 0,0 l/m 0 min 0 min 0 W/m 16,7 km/h (3 Bft)
22.04.2015 00:46 8,4 C 7,2 C 82 % 1030,6 hPa 0,0 l/m 0 min 0 min 0 W/m 16,7 km/h (3 Bft)
22.04.2015 00:48 8,3 C 7,2 C 82 % 1030,7 hPa 0,0 l/m 0 min 0 min 0 W/m 25,1 km/h (4 Bft)
22.04.2015 00:50 8,3 C 7,2 C 82 % 1030,7 hPa 0,0 l/m 0 min 0 min 0 W/m 23,0 km/h (4 Bft)
22.04.2015 00:52 8,2 C 6,7 C 82 % 1030,7 hPa 0,0 l/m 0 min 0 min 0 W/m 20,9 km/h (4 Bft)
22.04.2015 00:54 8,2 C 6,7 C 82 % 1030,7 hPa 0,0 l/m 0 min 0 min 0 W/m 16,7 km/h (3 Bft)
22.04.2015 00:56 8,1 C 6,7 C 83 % 1030,7 hPa 0,0 l/m 0 min 0 min 0 W/m 18,8 km/h (3 Bft)
22.04.2015 00:58 8,1 C 6,7 C 83 % 1030,7 hPa 0,0 l/m 0 min 0 min 0 W/m 18,8 km/h (3 Bft)
22.04.2015 01:00 8,0 C 6,7 C 83 % 1030,7 hPa 0,0 l/m 0 min 0 min 0 W/m 10,5 km/h (2 Bft)
22.04.2015 01:02 7,9 C 6,7 C 83 % 1030,7 hPa 0,0 l/m 0 min 0 min 0 W/m 20,9 km/h (4 Bft)
22.04.2015 01:04 7,9 C 6,7 C 83 % 1030,7 hPa 0,0 l/m 0 min 0 min 0 W/m 16,7 km/h (3 Bft)
22.04.2015 01:06 7,9 C 6,7 C 83 % 1030,7 hPa 0,0 l/m 0 min 0 min 0 W/m 16,7 km/h (3 Bft)
22.04.2015 01:08 7,8 C 6,7 C 83 % 1030,7 hPa 0,0 l/m 0 min 0 min 0 W/m 14,6 km/h (3 Bft)
22.04.2015 01:10 7,8 C 6,7 C 83 % 1030,8 hPa 0,0 l/m 0 min 0 min 0 W/m 10,5 km/h (2 Bft)
22.04.2015 01:12 7,7 C 6,7 C 84 % 1030,7 hPa 0,0 l/m 0 min 0 min 0 W/m 14,6 km/h (3 Bft)
22.04.2015 01:14 7,7 C 6,7 C 84 % 1030,7 hPa 0,0 l/m 0 min 0 min 0 W/m 10,5 km/h (2 Bft)
22.04.2015 01:16 7,7 C 6,7 C 84 % 1030,7 hPa 0,0 l/m 0 min 0 min 0 W/m 16,7 km/h (3 Bft)
22.04.2015 01:18 7,6 C 6,7 C 84 % 1030,7 hPa 0,0 l/m 0 min 0 min 0 W/m 14,6 km/h (3 Bft)
22.04.2015 01:20 7,6 C 6,1 C 84 % 1030,7 hPa 0,0 l/m 0 min 0 min 0 W/m 6,3 km/h (2 Bft)
22.04.2015 01:22 7,6 C 6,1 C 84 % 1030,7 hPa 0,0 l/m 0 min 0 min 0 W/m 8,4 km/h (2 Bft)
22.04.2015 01:24 7,5 C 6,1 C 84 % 1030,7 hPa 0,0 l/m 0 min 0 min 0 W/m 8,4 km/h (2 Bft)
22.04.2015 01:26 7,5 C 6,1 C 84 % 1030,7 hPa 0,0 l/m 0 min 0 min 0 W/m 10,5 km/h (2 Bft)
22.04.2015 01:28 7,4 C 6,1 C 84 % 1030,7 hPa 0,0 l/m 0 min 0 min 0 W/m 12,6 km/h (3 Bft)
22.04.2015 01:30 7,4 C 6,1 C 84 % 1030,7 hPa 0,0 l/m 0 min 0 min 0 W/m 8,4 km/h (2 Bft)
22.04.2015 01:32 7,4 C 6,1 C 84 % 1030,7 hPa 0,0 l/m 0 min 0 min 0 W/m 8,4 km/h (2 Bft)
22.04.2015 01:34 7,3 C 6,1 C 84 % 1030,7 hPa 0,0 l/m 0 min 0 min 0 W/m 10,5 km/h (2 Bft)
22.04.2015 01:36 7,3 C 6,1 C 84 % 1030,7 hPa 0,0 l/m 0 min 0 min 0 W/m 12,6 km/h (3 Bft)
22.04.2015 01:38 7,3 C 6,1 C 84 % 1030,7 hPa 0,0 l/m 0 min 0 min 0 W/m 14,6 km/h (3 Bft)
22.04.2015 01:40 7,2 C 6,1 C 85 % 1030,7 hPa 0,0 l/m 0 min 0 min 0 W/m 14,6 km/h (3 Bft)
22.04.2015 01:42 7,2 C 6,1 C 85 % 1030,7 hPa 0,0 l/m 0 min 0 min 0 W/m 8,4 km/h (2 Bft)
22.04.2015 01:44 7,2 C 6,1 C 85 % 1030,7 hPa 0,0 l/m 0 min 0 min 0 W/m 8,4 km/h (2 Bft)
22.04.2015 01:46 7,1 C 6,1 C 85 % 1030,7 hPa 0,0 l/m 0 min 0 min 0 W/m 12,6 km/h (3 Bft)
22.04.2015 01:48 7,1 C 5,6 C 85 % 1030,7 hPa 0,0 l/m 0 min 0 min 0 W/m 10,5 km/h (2 Bft)
22.04.2015 01:50 7,0 C 5,6 C 85 % 1030,6 hPa 0,0 l/m 0 min 0 min 0 W/m 8,4 km/h (2 Bft)
22.04.2015 01:52 7,0 C 5,6 C 85 % 1030,7 hPa 0,0 l/m 0 min 0 min 0 W/m 8,4 km/h (2 Bft)
22.04.2015 01:54 6,9 C 5,6 C 85 % 1030,7 hPa 0,0 l/m 0 min 0 min 0 W/m 10,5 km/h (2 Bft)
22.04.2015 01:56 6,9 C 5,6 C 85 % 1030,7 hPa 0,0 l/m 0 min 0 min 0 W/m 14,6 km/h (3 Bft)
22.04.2015 01:58 6,8 C 5,6 C 85 % 1030,7 hPa 0,0 l/m 0 min 0 min 0 W/m 12,6 km/h (3 Bft)
22.04.2015 02:00 6,8 C 5,6 C 85 % 1030,7 hPa 0,0 l/m 0 min 0 min 0 W/m 10,5 km/h (2 Bft)
22.04.2015 02:02 6,8 C 5,6 C 85 % 1030,7 hPa 0,0 l/m 0 min 0 min 0 W/m 10,5 km/h (2 Bft)
22.04.2015 02:04 6,7 C 5,6 C 85 % 1030,7 hPa 0,0 l/m 0 min 0 min 0 W/m 14,6 km/h (3 Bft)
22.04.2015 02:06 6,7 C 5,6 C 86 % 1030,6 hPa 0,0 l/m 0 min 0 min 0 W/m 10,5 km/h (2 Bft)
22.04.2015 02:08 6,7 C 5,6 C 86 % 1030,6 hPa 0,0 l/m 0 min 0 min 0 W/m 10,5 km/h (2 Bft)
22.04.2015 02:10 6,6 C 5,6 C 86 % 1030,6 hPa 0,0 l/m 0 min 0 min 0 W/m 12,6 km/h (3 Bft)
22.04.2015 02:12 6,6 C 5,6 C 86 % 1030,6 hPa 0,0 l/m 0 min 0 min 0 W/m 12,6 km/h (3 Bft)
22.04.2015 02:14 6,6 C 5,6 C 86 % 1030,6 hPa 0,0 l/m 0 min 0 min 0 W/m 10,5 km/h (2 Bft)
22.04.2015 02:16 6,5 C 5,6 C 86 % 1030,6 hPa 0,0 l/m 0 min 0 min 0 W/m 12,6 km/h (3 Bft)
22.04.2015 02:18 6,4 C 5,6 C 87 % 1030,6 hPa 0,0 l/m 0 min 0 min 0 W/m 14,6 km/h (3 Bft)
22.04.2015 02:20 6,4 C 5,6 C 87 % 1030,6 hPa 0,0 l/m 0 min 0 min 0 W/m 12,6 km/h (3 Bft)
22.04.2015 02:22 6,4 C 5,6 C 87 % 1030,5 hPa 0,0 l/m 0 min 0 min 0 W/m 8,4 km/h (2 Bft)
22.04.2015 02:24 6,4 C 5,6 C 87 % 1030,6 hPa 0,0 l/m 0 min 0 min 0 W/m 8,4 km/h (2 Bft)
22.04.2015 02:26 6,4 C 5,6 C 87 % 1030,6 hPa 0,0 l/m 0 min 0 min 0 W/m 10,5 km/h (2 Bft)
22.04.2015 02:28 6,3 C 5,0 C 87 % 1030,5 hPa 0,0 l/m 0 min 0 min 0 W/m 12,6 km/h (3 Bft)
22.04.2015 02:30 6,3 C 5,0 C 87 % 1030,6 hPa 0,0 l/m 0 min 0 min 0 W/m 12,6 km/h (3 Bft)
22.04.2015 02:32 6,3 C 5,0 C 87 % 1030,6 hPa 0,0 l/m 0 min 0 min 0 W/m 10,5 km/h (2 Bft)
22.04.2015 02:34 6,2 C 5,0 C 87 % 1030,6 hPa 0,0 l/m 0 min 0 min 0 W/m 12,6 km/h (3 Bft)
22.04.2015 02:36 6,2 C 5,0 C 87 % 1030,5 hPa 0,0 l/m 0 min 0 min 0 W/m 12,6 km/h (3 Bft)
22.04.2015 02:38 6,1 C 5,0 C 87 % 1030,5 hPa 0,0 l/m 0 min 0 min 0 W/m 12,6 km/h (3 Bft)
22.04.2015 02:40 6,0 C 5,0 C 88 % 1030,5 hPa 0,0 l/m 0 min 0 min 0 W/m 8,4 km/h (2 Bft)
22.04.2015 02:42 5,9 C 5,0 C 88 % 1030,5 hPa 0,0 l/m 0 min 0 min 0 W/m 10,5 km/h (2 Bft)
22.04.2015 02:44 5,8 C 5,0 C 88 % 1030,5 hPa 0,0 l/m 0 min 0 min 0 W/m 10,5 km/h (2 Bft)
22.04.2015 02:46 5,8 C 5,0 C 89 % 1030,5 hPa 0,0 l/m 0 min 0 min 0 W/m 6,3 km/h (2 Bft)
22.04.2015 02:48 5,7 C 5,0 C 89 % 1030,4 hPa 0,0 l/m 0 min 0 min 0 W/m 14,6 km/h (3 Bft)
22.04.2015 02:50 5,7 C 5,0 C 89 % 1030,5 hPa 0,0 l/m 0 min 0 min 0 W/m 10,5 km/h (2 Bft)
22.04.2015 02:52 5,7 C 5,0 C 89 % 1030,5 hPa 0,0 l/m 0 min 0 min 0 W/m 10,5 km/h (2 Bft)
22.04.2015 02:54 5,6 C 5,0 C 90 % 1030,5 hPa 0,0 l/m 0 min 0 min 0 W/m 10,5 km/h (2 Bft)
22.04.2015 02:56 5,6 C 5,0 C 90 % 1030,5 hPa 0,0 l/m 0 min 0 min 0 W/m 6,3 km/h (2 Bft)
22.04.2015 02:58 5,6 C 5,0 C 90 % 1030,5 hPa 0,0 l/m 0 min 0 min 0 W/m 8,4 km/h (2 Bft)
22.04.2015 03:00 5,6 C 5,0 C 90 % 1030,5 hPa 0,0 l/m 0 min 0 min 0 W/m 10,5 km/h (2 Bft)
22.04.2015 03:02 5,5 C 5,0 C 90 % 1030,5 hPa 0,0 l/m 0 min 0 min 0 W/m 10,5 km/h (2 Bft)
22.04.2015 03:04 5,5 C 5,0 C 90 % 1030,5 hPa 0,0 l/m 0 min 0 min 0 W/m 8,4 km/h (2 Bft)
22.04.2015 03:06 5,4 C 5,0 C 90 % 1030,5 hPa 0,0 l/m 0 min 0 min 0 W/m 10,5 km/h (2 Bft)
22.04.2015 03:08 5,4 C 5,0 C 90 % 1030,5 hPa 0,0 l/m 0 min 0 min 0 W/m 10,5 km/h (2 Bft)
22.04.2015 03:10 5,4 C 5,0 C 91 % 1030,5 hPa 0,0 l/m 0 min 0 min 0 W/m 8,4 km/h (2 Bft)
22.04.2015 03:12 5,4 C 5,0 C 91 % 1030,5 hPa 0,0 l/m 0 min 0 min 0 W/m 8,4 km/h (2 Bft)
22.04.2015 03:14 5,4 C 5,0 C 91 % 1030,4 hPa 0,0 l/m 0 min 0 min 0 W/m 8,4 km/h (2 Bft)
22.04.2015 03:16 5,4 C 5,0 C 91 % 1030,4 hPa 0,0 l/m 0 min 0 min 0 W/m 10,5 km/h (2 Bft)
22.04.2015 03:18 5,3 C 5,0 C 91 % 1030,4 hPa 0,0 l/m 0 min 0 min 0 W/m 6,3 km/h (2 Bft)
22.04.2015 03:20 5,3 C 4,4 C 91 % 1030,4 hPa 0,0 l/m 0 min 0 min 0 W/m 8,4 km/h (2 Bft)
22.04.2015 03:22 5,3 C 4,4 C 91 % 1030,5 hPa 0,0 l/m 0 min 0 min 0 W/m 6,3 km/h (2 Bft)
22.04.2015 03:24 5,3 C 4,4 C 91 % 1030,4 hPa 0,0 l/m 0 min 0 min 0 W/m 8,4 km/h (2 Bft)
22.04.2015 03:26 5,3 C 4,4 C 91 % 1030,4 hPa 0,0 l/m 0 min 0 min 0 W/m 10,5 km/h (2 Bft)
22.04.2015 03:28 5,3 C 4,4 C 91 % 1030,4 hPa 0,0 l/m 0 min 0 min 0 W/m 10,5 km/h (2 Bft)
22.04.2015 03:30 5,2 C 4,4 C 91 % 1030,4 hPa 0,0 l/m 0 min 0 min 0 W/m 8,4 km/h (2 Bft)
22.04.2015 03:32 5,2 C 4,4 C 91 % 1030,4 hPa 0,0 l/m 0 min 0 min 0 W/m 6,3 km/h (2 Bft)
22.04.2015 03:34 5,2 C 4,4 C 91 % 1030,4 hPa 0,0 l/m 0 min 0 min 0 W/m 10,5 km/h (2 Bft)
22.04.2015 03:36 5,2 C 4,4 C 91 % 1030,3 hPa 0,0 l/m 0 min 0 min 0 W/m 6,3 km/h (2 Bft)
22.04.2015 03:38 5,1 C 4,4 C 91 % 1030,3 hPa 0,0 l/m 0 min 0 min 0 W/m 8,4 km/h (2 Bft)
22.04.2015 03:40 5,1 C 4,4 C 91 % 1030,3 hPa 0,0 l/m 0 min 0 min 0 W/m 10,5 km/h (2 Bft)
22.04.2015 03:42 5,1 C 4,4 C 91 % 1030,3 hPa 0,0 l/m 0 min 0 min 0 W/m 8,4 km/h (2 Bft)
22.04.2015 03:44 5,1 C 4,4 C 91 % 1030,3 hPa 0,0 l/m 0 min 0 min 0 W/m 10,5 km/h (2 Bft)
22.04.2015 03:46 5,0 C 4,4 C 92 % 1030,3 hPa 0,0 l/m 0 min 0 min 0 W/m 8,4 km/h (2 Bft)
22.04.2015 03:48 5,0 C 4,4 C 92 % 1030,4 hPa 0,0 l/m 0 min 0 min 0 W/m 10,5 km/h (2 Bft)
22.04.2015 03:50 4,9 C 4,4 C 92 % 1030,3 hPa 0,0 l/m 0 min 0 min 0 W/m 8,4 km/h (2 Bft)
22.04.2015 03:52 4,9 C 4,4 C 92 % 1030,4 hPa 0,0 l/m 0 min 0 min 0 W/m 8,4 km/h (2 Bft)
22.04.2015 03:54 4,9 C 4,4 C 92 % 1030,4 hPa 0,0 l/m 0 min 0 min 0 W/m 6,3 km/h (2 Bft)
22.04.2015 03:56 4,9 C 4,4 C 92 % 1030,3 hPa 0,0 l/m 0 min 0 min 0 W/m 6,3 km/h (2 Bft)
22.04.2015 03:58 4,9 C 4,4 C 92 % 1030,4 hPa 0,0 l/m 0 min 0 min 0 W/m 8,4 km/h (2 Bft)
22.04.2015 04:00 4,8 C 4,4 C 92 % 1030,3 hPa 0,0 l/m 0 min 0 min 0 W/m 6,3 km/h (2 Bft)
22.04.2015 04:02 4,8 C 4,4 C 92 % 1030,3 hPa 0,0 l/m 0 min 0 min 0 W/m 6,3 km/h (2 Bft)
22.04.2015 04:04 4,8 C 4,4 C 92 % 1030,3 hPa 0,0 l/m 0 min 0 min 0 W/m 8,4 km/h (2 Bft)
22.04.2015 04:06 4,8 C 4,4 C 92 % 1030,3 hPa 0,0 l/m 0 min 0 min 0 W/m 8,4 km/h (2 Bft)
22.04.2015 04:08 4,8 C 4,4 C 92 % 1030,3 hPa 0,0 l/m 0 min 0 min 0 W/m 4,2 km/h (1 Bft)
22.04.2015 04:10 4,8 C 4,4 C 92 % 1030,2 hPa 0,0 l/m 0 min 0 min 0 W/m 6,3 km/h (2 Bft)
22.04.2015 04:12 4,7 C 4,4 C 92 % 1030,2 hPa 0,0 l/m 0 min 0 min 0 W/m 6,3 km/h (2 Bft)
22.04.2015 04:14 4,7 C 4,4 C 92 % 1030,3 hPa 0,0 l/m 0 min 0 min 0 W/m 4,2 km/h (1 Bft)
22.04.2015 04:16 4,7 C 4,4 C 92 % 1030,4 hPa 0,0 l/m 0 min 0 min 0 W/m 4,2 km/h (1 Bft)
22.04.2015 04:18 4,7 C 4,4 C 92 % 1030,3 hPa 0,0 l/m 0 min 0 min 0 W/m 6,3 km/h (2 Bft)
22.04.2015 04:20 4,7 C 4,4 C 92 % 1030,3 hPa 0,0 l/m 0 min 0 min 0 W/m 8,4 km/h (2 Bft)
22.04.2015 04:22 4,6 C 3,9 C 92 % 1030,3 hPa 0,0 l/m 0 min 0 min 0 W/m 6,3 km/h (2 Bft)
22.04.2015 04:24 4,6 C 3,9 C 92 % 1030,2 hPa 0,0 l/m 0 min 0 min 0 W/m 4,2 km/h (1 Bft)
22.04.2015 04:26 4,5 C 3,9 C 93 % 1030,2 hPa 0,0 l/m 0 min 0 min 0 W/m 8,4 km/h (2 Bft)
22.04.2015 04:28 4,5 C 3,9 C 93 % 1030,3 hPa 0,0 l/m 0 min 0 min 0 W/m 6,3 km/h (2 Bft)
22.04.2015 04:30 4,4 C 3,9 C 93 % 1030,2 hPa 0,0 l/m 0 min 0 min 0 W/m 8,4 km/h (2 Bft)
22.04.2015 04:32 4,4 C 3,9 C 93 % 1030,2 hPa 0,0 l/m 0 min 0 min 0 W/m 6,3 km/h (2 Bft)
22.04.2015 04:34 4,4 C 3,9 C 93 % 1030,2 hPa 0,0 l/m 0 min 0 min 0 W/m 6,3 km/h (2 Bft)
22.04.2015 04:36 4,4 C 3,9 C 93 % 1030,2 hPa 0,0 l/m 0 min 0 min 0 W/m 4,2 km/h (1 Bft)
22.04.2015 04:38 4,3 C 3,9 C 93 % 1030,1 hPa 0,0 l/m 0 min 0 min 0 W/m 6,3 km/h (2 Bft)
22.04.2015 04:40 4,3 C 3,9 C 93 % 1030,1 hPa 0,0 l/m 0 min 0 min 0 W/m 6,3 km/h (2 Bft)
22.04.2015 04:42 4,3 C 3,9 C 93 % 1030,1 hPa 0,0 l/m 0 min 0 min 0 W/m 6,3 km/h (2 Bft)
22.04.2015 04:44 4,3 C 3,9 C 93 % 1030,0 hPa 0,0 l/m 0 min 0 min 0 W/m 8,4 km/h (2 Bft)
22.04.2015 04:46 4,2 C 3,9 C 93 % 1030,1 hPa 0,0 l/m 0 min 0 min 0 W/m 6,3 km/h (2 Bft)
22.04.2015 04:48 4,2 C 3,9 C 93 % 1030,0 hPa 0,0 l/m 0 min 0 min 0 W/m 8,4 km/h (2 Bft)
22.04.2015 04:50 4,2 C 3,9 C 93 % 1030,0 hPa 0,0 l/m 0 min 0 min 0 W/m 4,2 km/h (1 Bft)
22.04.2015 04:52 4,2 C 3,9 C 93 % 1030,0 hPa 0,0 l/m 0 min 0 min 0 W/m 6,3 km/h (2 Bft)
22.04.2015 04:54 4,2 C 3,9 C 93 % 1030,0 hPa 0,0 l/m 0 min 0 min 0 W/m 4,2 km/h (1 Bft)
22.04.2015 04:56 4,1 C 3,9 C 93 % 1030,0 hPa 0,0 l/m 0 min 0 min 0 W/m 6,3 km/h (2 Bft)
22.04.2015 04:58 4,1 C 3,3 C 93 % 1030,0 hPa 0,0 l/m 0 min 0 min 0 W/m 6,3 km/h (2 Bft)
22.04.2015 05:00 4,1 C 3,3 C 93 % 1030,0 hPa 0,0 l/m 0 min 0 min 0 W/m 6,3 km/h (2 Bft)
22.04.2015 05:02 4,1 C 3,3 C 93 % 1030,0 hPa 0,0 l/m 0 min 0 min 0 W/m 4,2 km/h (1 Bft)
22.04.2015 05:04 4,1 C 3,9 C 94 % 1030,0 hPa 0,0 l/m 0 min 0 min 0 W/m 6,3 km/h (2 Bft)
22.04.2015 05:06 4,1 C 3,9 C 94 % 1029,9 hPa 0,0 l/m 0 min 0 min 0 W/m 6,3 km/h (2 Bft)
22.04.2015 05:08 4,0 C 3,9 C 94 % 1030,0 hPa 0,0 l/m 0 min 0 min 0 W/m 6,3 km/h (2 Bft)
22.04.2015 05:10 4,0 C 3,3 C 94 % 1030,0 hPa 0,0 l/m 0 min 0 min 0 W/m 4,2 km/h (1 Bft)
22.04.2015 05:12 4,0 C 3,9 C 94 % 1030,0 hPa 0,0 l/m 0 min 0 min 0 W/m 4,2 km/h (1 Bft)
22.04.2015 05:14 4,0 C 3,3 C 94 % 1030,0 hPa 0,0 l/m 0 min 0 min 0 W/m 4,2 km/h (1 Bft)
22.04.2015 05:16 4,0 C 3,9 C 94 % 1030,0 hPa 0,0 l/m 0 min 0 min 0 W/m 4,2 km/h (1 Bft)
22.04.2015 05:18 3,9 C 3,3 C 94 % 1030,0 hPa 0,0 l/m 0 min 0 min 0 W/m 6,3 km/h (2 Bft)
22.04.2015 05:20 3,9 C 3,3 C 94 % 1030,0 hPa 0,0 l/m 0 min 0 min 0 W/m 6,3 km/h (2 Bft)
22.04.2015 05:22 3,9 C 3,3 C 94 % 1029,9 hPa 0,0 l/m 0 min 0 min 0 W/m 4,2 km/h (1 Bft)
22.04.2015 05:24 3,8 C 3,3 C 94 % 1029,9 hPa 0,0 l/m 0 min 0 min 0 W/m 4,2 km/h (1 Bft)
22.04.2015 05:26 3,8 C 3,3 C 94 % 1029,9 hPa 0,0 l/m 0 min 0 min 0 W/m 4,2 km/h (1 Bft)
22.04.2015 05:28 3,8 C 3,3 C 94 % 1029,9 hPa 0,0 l/m 0 min 0 min 0 W/m 6,3 km/h (2 Bft)
22.04.2015 05:30 3,8 C 3,3 C 94 % 1029,9 hPa 0,0 l/m 0 min 0 min 0 W/m 6,3 km/h (2 Bft)
22.04.2015 05:32 3,8 C 3,3 C 94 % 1029,9 hPa 0,0 l/m 0 min 0 min 0 W/m 4,2 km/h (1 Bft)
22.04.2015 05:34 3,8 C 3,3 C 94 % 1029,8 hPa 0,0 l/m 0 min 0 min 0 W/m 4,2 km/h (1 Bft)
22.04.2015 05:36 3,7 C 3,3 C 94 % 1029,8 hPa 0,0 l/m 0 min 0 min 0 W/m 6,3 km/h (2 Bft)
22.04.2015 05:38 3,7 C 3,3 C 94 % 1029,9 hPa 0,0 l/m 0 min 0 min 0 W/m 4,2 km/h (1 Bft)
22.04.2015 05:40 3,7 C 3,3 C 94 % 1029,8 hPa 0,0 l/m 0 min 0 min 0 W/m 4,2 km/h (1 Bft)
22.04.2015 05:42 3,7 C 3,3 C 94 % 1029,8 hPa 0,0 l/m 0 min 0 min 0 W/m 4,2 km/h (1 Bft)
22.04.2015 05:44 3,7 C 3,3 C 94 % 1029,8 hPa 0,0 l/m 0 min 0 min 0 W/m 4,2 km/h (1 Bft)
22.04.2015 05:46 3,7 C 3,3 C 94 % 1029,8 hPa 0,0 l/m 0 min 0 min 0 W/m 4,2 km/h (1 Bft)
22.04.2015 05:48 3,7 C 3,3 C 94 % 1029,8 hPa 0,0 l/m 0 min 0 min 0 W/m 4,2 km/h (1 Bft)
22.04.2015 05:50 3,7 C 3,3 C 94 % 1029,7 hPa 0,0 l/m 0 min 0 min 0 W/m 4,2 km/h (1 Bft)
22.04.2015 05:52 3,7 C 3,3 C 94 % 1029,8 hPa 0,0 l/m 0 min 0 min 0 W/m 2,1 km/h (1 Bft)
22.04.2015 05:54 3,7 C 2,8 C 94 % 1029,6 hPa 0,0 l/m 0 min 0 min 0 W/m 4,2 km/h (1 Bft)
22.04.2015 05:56 3,6 C 2,8 C 94 % 1029,7 hPa 0,0 l/m 0 min 0 min 0 W/m 4,2 km/h (1 Bft)
22.04.2015 05:58 3,6 C 2,8 C 94 % 1029,8 hPa 0,0 l/m 0 min 0 min 0 W/m 4,2 km/h (1 Bft)
22.04.2015 06:00 3,6 C 2,8 C 95 % 1029,7 hPa 0,0 l/m 0 min 0 min 0 W/m 2,1 km/h (1 Bft)
22.04.2015 06:02 3,5 C 2,8 C 95 % 1029,8 hPa 0,0 l/m 0 min 0 min 0 W/m 4,2 km/h (1 Bft)
22.04.2015 06:04 3,4 C 2,8 C 94 % 1029,7 hPa 0,0 l/m 0 min 0 min 0 W/m 2,1 km/h (1 Bft)
22.04.2015 06:06 3,4 C 2,8 C 94 % 1029,8 hPa 0,0 l/m 0 min 0 min 0 W/m 2,1 km/h (1 Bft)
22.04.2015 06:08 3,4 C 2,8 C 94 % 1029,8 hPa 0,0 l/m 0 min 0 min 0 W/m 2,1 km/h (1 Bft)
22.04.2015 06:10 3,3 C 2,8 C 95 % 1029,7 hPa 0,0 l/m 0 min 0 min 0 W/m 2,1 km/h (1 Bft)
22.04.2015 06:12 3,3 C 2,8 C 95 % 1029,7 hPa 0,0 l/m 0 min 0 min 0 W/m 2,1 km/h (1 Bft)
22.04.2015 06:14 3,3 C 2,8 C 95 % 1029,7 hPa 0,0 l/m 0 min 0 min 3 W/m 2,1 km/h (1 Bft)
22.04.2015 06:16 3,3 C 2,8 C 95 % 1029,8 hPa 0,0 l/m 0 min 0 min 5 W/m 2,1 km/h (1 Bft)
22.04.2015 06:18 3,2 C 2,8 C 95 % 1029,6 hPa 0,0 l/m 0 min 0 min 5 W/m 2,1 km/h (1 Bft)
22.04.2015 06:20 3,3 C 2,8 C 95 % 1029,6 hPa 0,0 l/m 0 min 0 min 5 W/m 2,1 km/h (1 Bft)
22.04.2015 06:22 3,3 C 3,3 C 95 % 1029,7 hPa 0,0 l/m 0 min 0 min 5 W/m 2,1 km/h (1 Bft)
22.04.2015 06:24 3,4 C 3,3 C 95 % 1029,6 hPa 0,0 l/m 0 min 0 min 5 W/m 2,1 km/h (1 Bft)
22.04.2015 06:26 3,4 C 3,3 C 95 % 1029,6 hPa 0,0 l/m 0 min 0 min 5 W/m 2,1 km/h (1 Bft)
22.04.2015 06:28 3,5 C 3,3 C 95 % 1029,6 hPa 0,0 l/m 0 min 0 min 6 W/m 2,1 km/h (1 Bft)
22.04.2015 06:30 3,5 C 3,3 C 95 % 1029,6 hPa 0,0 l/m 0 min 0 min 7 W/m 4,2 km/h (1 Bft)
22.04.2015 06:32 3,6 C 3,9 C 95 % 1029,6 hPa 0,0 l/m 0 min 0 min 7 W/m 2,1 km/h (1 Bft)
22.04.2015 06:34 3,6 C 3,9 C 95 % 1029,6 hPa 0,0 l/m 0 min 0 min 8 W/m 2,1 km/h (1 Bft)
22.04.2015 06:36 3,6 C 3,9 C 95 % 1029,6 hPa 0,0 l/m 0 min 0 min 9 W/m 2,1 km/h (1 Bft)
22.04.2015 06:38 3,7 C 3,9 C 95 % 1029,7 hPa 0,0 l/m 0 min 0 min 9 W/m 2,1 km/h (1 Bft)
22.04.2015 06:40 3,7 C 3,9 C 95 % 1029,6 hPa 0,0 l/m 0 min 0 min 11 W/m 2,1 km/h (1 Bft)
22.04.2015 06:42 3,7 C 3,9 C 95 % 1029,6 hPa 0,0 l/m 0 min 0 min 11 W/m 2,1 km/h (1 Bft)
22.04.2015 06:44 3,8 C 3,9 C 95 % 1029,5 hPa 0,0 l/m 0 min 0 min 13 W/m 2,1 km/h (1 Bft)
22.04.2015 06:46 3,8 C 3,9 C 96 % 1029,6 hPa 0,0 l/m 0 min 0 min 14 W/m 2,1 km/h (1 Bft)
22.04.2015 06:48 3,9 C 3,9 C 96 % 1029,5 hPa 0,0 l/m 0 min 0 min 14 W/m 2,1 km/h (1 Bft)
22.04.2015 06:50 3,9 C 3,9 C 96 % 1029,5 hPa 0,0 l/m 0 min 0 min 16 W/m 4,2 km/h (1 Bft)
22.04.2015 06:52 3,9 C 4,4 C 96 % 1029,5 hPa 0,0 l/m 0 min 0 min 16 W/m 4,2 km/h (1 Bft)
22.04.2015 06:54 4,0 C 4,4 C 96 % 1029,5 hPa 0,0 l/m 0 min 0 min 16 W/m 4,2 km/h (1 Bft)
22.04.2015 06:56 4,1 C 4,4 C 96 % 1029,5 hPa 0,0 l/m 0 min 0 min 19 W/m 2,1 km/h (1 Bft)
22.04.2015 06:58 4,1 C 4,4 C 96 % 1029,4 hPa 0,0 l/m 0 min 0 min 18 W/m 4,2 km/h (1 Bft)
22.04.2015 07:00 4,1 C 4,4 C 96 % 1029,5 hPa 0,0 l/m 0 min 0 min 18 W/m 4,2 km/h (1 Bft)
22.04.2015 07:02 4,1 C 4,4 C 96 % 1029,5 hPa 0,0 l/m 0 min 0 min 21 W/m 4,2 km/h (1 Bft)
22.04.2015 07:04 4,2 C 4,4 C 96 % 1029,5 hPa 0,0 l/m 0 min 0 min 21 W/m 4,2 km/h (1 Bft)
22.04.2015 07:06 4,3 C 4,4 C 96 % 1029,4 hPa 0,0 l/m 0 min 0 min 23 W/m 2,1 km/h (1 Bft)
22.04.2015 07:08 4,3 C 4,4 C 96 % 1029,4 hPa 0,0 l/m 0 min 0 min 21 W/m 2,1 km/h (1 Bft)
22.04.2015 07:10 4,3 C 4,4 C 96 % 1029,4 hPa 0,0 l/m 0 min 0 min 23 W/m 2,1 km/h (1 Bft)
22.04.2015 07:12 4,4 C 4,4 C 96 % 1029,4 hPa 0,0 l/m 0 min 0 min 24 W/m 2,1 km/h (1 Bft)
22.04.2015 07:14 4,4 C 5,0 C 96 % 1029,4 hPa 0,0 l/m 0 min 0 min 23 W/m 6,3 km/h (2 Bft)
22.04.2015 07:16 4,5 C 4,4 C 96 % 1029,4 hPa 0,0 l/m 0 min 0 min 26 W/m 12,6 km/h (3 Bft)
22.04.2015 07:18 4,6 C 5,0 C 96 % 1029,4 hPa 0,0 l/m 0 min 0 min 26 W/m 8,4 km/h (2 Bft)
22.04.2015 07:20 4,7 C 5,0 C 96 % 1029,4 hPa 0,0 l/m 0 min 0 min 23 W/m 8,4 km/h (2 Bft)
22.04.2015 07:22 4,8 C 5,0 C 96 % 1029,4 hPa 0,0 l/m 0 min 0 min 25 W/m 8,4 km/h (2 Bft)
22.04.2015 07:24 4,8 C 5,0 C 96 % 1029,4 hPa 0,0 l/m 0 min 0 min 26 W/m 8,4 km/h (2 Bft)
22.04.2015 07:26 4,9 C 5,0 C 96 % 1029,4 hPa 0,0 l/m 0 min 0 min 32 W/m 10,5 km/h (2 Bft)
22.04.2015 07:28 4,9 C 5,0 C 96 % 1029,4 hPa 0,0 l/m 0 min 0 min 34 W/m 10,5 km/h (2 Bft)
22.04.2015 07:30 4,9 C 5,0 C 96 % 1029,4 hPa 0,0 l/m 0 min 0 min 31 W/m 8,4 km/h (2 Bft)
22.04.2015 07:32 4,9 C 5,0 C 96 % 1029,4 hPa 0,0 l/m 0 min 0 min 26 W/m 6,3 km/h (2 Bft)
22.04.2015 07:34 5,0 C 5,0 C 96 % 1029,4 hPa 0,0 l/m 0 min 0 min 28 W/m 6,3 km/h (2 Bft)
22.04.2015 07:36 5,0 C 5,0 C 96 % 1029,5 hPa 0,0 l/m 0 min 0 min 26 W/m 8,4 km/h (2 Bft)
22.04.2015 07:38 5,1 C 5,0 C 96 % 1029,4 hPa 0,0 l/m 0 min 0 min 29 W/m 10,5 km/h (2 Bft)
22.04.2015 07:40 5,1 C 5,0 C 96 % 1029,4 hPa 0,0 l/m 0 min 0 min 33 W/m 8,4 km/h (2 Bft)
22.04.2015 07:42 5,1 C 5,0 C 96 % 1029,4 hPa 0,0 l/m 0 min 0 min 41 W/m 12,6 km/h (3 Bft)
22.04.2015 07:44 5,1 C 5,0 C 96 % 1029,5 hPa 0,0 l/m 0 min 0 min 46 W/m 10,5 km/h (2 Bft)
22.04.2015 07:46 5,1 C 5,0 C 96 % 1029,5 hPa 0,0 l/m 0 min 0 min 47 W/m 8,4 km/h (2 Bft)
22.04.2015 07:48 5,2 C 5,0 C 96 % 1029,4 hPa 0,0 l/m 0 min 0 min 46 W/m 10,5 km/h (2 Bft)
22.04.2015 07:50 5,2 C 5,0 C 96 % 1029,5 hPa 0,0 l/m 0 min 0 min 46 W/m 10,5 km/h (2 Bft)
22.04.2015 07:52 5,2 C 5,0 C 96 % 1029,5 hPa 0,0 l/m 0 min 0 min 51 W/m 10,5 km/h (2 Bft)
22.04.2015 07:54 5,2 C 5,0 C 96 % 1029,4 hPa 0,0 l/m 0 min 0 min 52 W/m 8,4 km/h (2 Bft)
22.04.2015 07:56 5,2 C 5,0 C 96 % 1029,4 hPa 0,0 l/m 0 min 0 min 55 W/m 8,4 km/h (2 Bft)
22.04.2015 07:58 5,2 C 5,0 C 96 % 1029,4 hPa 0,0 l/m 0 min 0 min 47 W/m 8,4 km/h (2 Bft)
22.04.2015 08:00 5,2 C 5,0 C 96 % 1029,4 hPa 0,0 l/m 0 min 0 min 45 W/m 10,5 km/h (2 Bft)
22.04.2015 08:02 5,3 C 5,0 C 96 % 1029,5 hPa 0,0 l/m 0 min 0 min 58 W/m 10,5 km/h (2 Bft)
22.04.2015 08:04 5,3 C 5,6 C 96 % 1029,4 hPa 0,0 l/m 0 min 0 min 50 W/m 6,3 km/h (2 Bft)
22.04.2015 08:06 5,3 C 5,6 C 96 % 1029,4 hPa 0,0 l/m 0 min 0 min 61 W/m 8,4 km/h (2 Bft)
22.04.2015 08:08 5,4 C 5,6 C 96 % 1029,4 hPa 0,0 l/m 0 min 0 min 54 W/m 14,6 km/h (3 Bft)
22.04.2015 08:10 5,4 C 5,6 C 96 % 1029,4 hPa 0,0 l/m 0 min 0 min 50 W/m 12,6 km/h (3 Bft)
22.04.2015 08:12 5,4 C 5,6 C 96 % 1029,4 hPa 0,0 l/m 0 min 0 min 59 W/m 14,6 km/h (3 Bft)
22.04.2015 08:14 5,4 C 5,6 C 95 % 1029,4 hPa 0,0 l/m 0 min 0 min 61 W/m 10,5 km/h (2 Bft)
22.04.2015 08:16 5,4 C 5,6 C 95 % 1029,4 hPa 0,0 l/m 0 min 0 min 54 W/m 16,7 km/h (3 Bft)
22.04.2015 08:18 5,5 C 5,6 C 95 % 1029,4 hPa 0,0 l/m 0 min 0 min 49 W/m 8,4 km/h (2 Bft)
22.04.2015 08:20 5,5 C 5,6 C 96 % 1029,4 hPa 0,0 l/m 0 min 0 min 45 W/m 8,4 km/h (2 Bft)
22.04.2015 08:22 5,5 C 5,6 C 95 % 1029,4 hPa 0,0 l/m 0 min 0 min 45 W/m 20,9 km/h (4 Bft)
22.04.2015 08:24 5,5 C 5,6 C 95 % 1029,4 hPa 0,0 l/m 0 min 0 min 42 W/m 20,9 km/h (4 Bft)
22.04.2015 08:26 5,5 C 5,0 C 95 % 1029,4 hPa 0,0 l/m 0 min 0 min 47 W/m 18,8 km/h (3 Bft)
22.04.2015 08:28 5,5 C 5,0 C 95 % 1029,4 hPa 0,0 l/m 0 min 0 min 44 W/m 12,6 km/h (3 Bft)
22.04.2015 08:30 5,5 C 5,0 C 95 % 1029,4 hPa 0,0 l/m 0 min 0 min 43 W/m 18,8 km/h (3 Bft)
22.04.2015 08:32 5,5 C 5,0 C 95 % 1029,4 hPa 0,0 l/m 0 min 0 min 44 W/m 14,6 km/h (3 Bft)
22.04.2015 08:34 5,4 C 5,0 C 95 % 1029,4 hPa 0,0 l/m 0 min 0 min 45 W/m 12,6 km/h (3 Bft)
22.04.2015 08:36 5,5 C 5,6 C 95 % 1029,4 hPa 0,0 l/m 0 min 0 min 44 W/m 12,6 km/h (3 Bft)
22.04.2015 08:38 5,5 C 5,6 C 95 % 1029,4 hPa 0,0 l/m 0 min 0 min 48 W/m 16,7 km/h (3 Bft)
22.04.2015 08:40 5,5 C 5,6 C 95 % 1029,5 hPa 0,0 l/m 0 min 0 min 45 W/m 12,6 km/h (3 Bft)
22.04.2015 08:42 5,6 C 5,6 C 95 % 1029,4 hPa 0,0 l/m 0 min 0 min 67 W/m 12,6 km/h (3 Bft)
22.04.2015 08:44 5,6 C 5,6 C 95 % 1029,4 hPa 0,0 l/m 0 min 0 min 60 W/m 12,6 km/h (3 Bft)
22.04.2015 08:46 5,6 C 5,6 C 95 % 1029,4 hPa 0,0 l/m 0 min 0 min 56 W/m 10,5 km/h (2 Bft)
22.04.2015 08:48 5,6 C 5,6 C 95 % 1029,4 hPa 0,0 l/m 0 min 0 min 83 W/m 12,6 km/h (3 Bft)
22.04.2015 08:50 5,6 C 5,6 C 95 % 1029,4 hPa 0,0 l/m 0 min 0 min 87 W/m 12,6 km/h (3 Bft)
22.04.2015 08:52 5,6 C 5,6 C 95 % 1029,4 hPa 0,0 l/m 0 min 0 min 85 W/m 12,6 km/h (3 Bft)
22.04.2015 08:54 5,6 C 5,6 C 95 % 1029,3 hPa 0,0 l/m 0 min 0 min 83 W/m 12,6 km/h (3 Bft)
22.04.2015 08:56 5,7 C 5,6 C 95 % 1029,4 hPa 0,0 l/m 0 min 0 min 71 W/m 14,6 km/h (3 Bft)
22.04.2015 08:58 5,7 C 5,6 C 95 % 1029,4 hPa 0,0 l/m 0 min 0 min 81 W/m 12,6 km/h (3 Bft)
22.04.2015 09:00 5,7 C 5,6 C 95 % 1029,3 hPa 0,0 l/m 0 min 0 min 76 W/m 10,5 km/h (2 Bft)
22.04.2015 09:02 5,7 C 5,6 C 95 % 1029,3 hPa 0,0 l/m 0 min 0 min 69 W/m 8,4 km/h (2 Bft)
22.04.2015 09:04 5,8 C 5,6 C 95 % 1029,3 hPa 0,0 l/m 0 min 0 min 70 W/m 10,5 km/h (2 Bft)
22.04.2015 09:06 5,8 C 6,1 C 95 % 1029,3 hPa 0,0 l/m 0 min 0 min 73 W/m 10,5 km/h (2 Bft)
22.04.2015 09:08 5,9 C 6,1 C 95 % 1029,3 hPa 0,0 l/m 0 min 0 min 79 W/m 12,6 km/h (3 Bft)
22.04.2015 09:10 5,9 C 6,1 C 95 % 1029,2 hPa 0,0 l/m 0 min 0 min 91 W/m 12,6 km/h (3 Bft)
22.04.2015 09:12 5,9 C 6,1 C 95 % 1029,2 hPa 0,0 l/m 0 min 0 min 86 W/m 10,5 km/h (2 Bft)
22.04.2015 09:14 5,9 C 6,1 C 95 % 1029,2 hPa 0,0 l/m 0 min 0 min 81 W/m 6,3 km/h (2 Bft)
22.04.2015 09:16 6,0 C 6,1 C 95 % 1029,2 hPa 0,0 l/m 0 min 0 min 88 W/m 6,3 km/h (2 Bft)
22.04.2015 09:18 6,1 C 6,1 C 95 % 1029,2 hPa 0,0 l/m 0 min 0 min 98 W/m 10,5 km/h (2 Bft)
22.04.2015 09:20 6,1 C 6,1 C 95 % 1029,2 hPa 0,0 l/m 0 min 0 min 111 W/m 12,6 km/h (3 Bft)
22.04.2015 09:22 6,1 C 6,1 C 95 % 1029,2 hPa 0,0 l/m 0 min 0 min 81 W/m 12,6 km/h (3 Bft)
22.04.2015 09:24 6,2 C 6,1 C 95 % 1029,2 hPa 0,0 l/m 0 min 0 min 75 W/m 10,5 km/h (2 Bft)
22.04.2015 09:26 6,3 C 6,7 C 95 % 1029,2 hPa 0,0 l/m 0 min 0 min 101 W/m 8,4 km/h (2 Bft)
22.04.2015 09:28 6,3 C 6,7 C 95 % 1029,2 hPa 0,0 l/m 0 min 0 min 110 W/m 12,6 km/h (3 Bft)
22.04.2015 09:30 6,4 C 6,7 C 95 % 1029,2 hPa 0,0 l/m 0 min 0 min 107 W/m 10,5 km/h (2 Bft)
22.04.2015 09:32 6,4 C 6,7 C 95 % 1029,1 hPa 0,0 l/m 0 min 0 min 108 W/m 12,6 km/h (3 Bft)
22.04.2015 09:34 6,4 C 6,7 C 95 % 1029,2 hPa 0,0 l/m 0 min 0 min 117 W/m 10,5 km/h (2 Bft)
22.04.2015 09:36 6,5 C 6,7 C 95 % 1029,2 hPa 0,0 l/m 0 min 0 min 127 W/m 10,5 km/h (2 Bft)
22.04.2015 09:38 6,7 C 7,2 C 94 % 1029,2 hPa 0,0 l/m 0 min 0 min 128 W/m 10,5 km/h (2 Bft)
22.04.2015 09:40 6,7 C 7,2 C 95 % 1029,1 hPa 0,0 l/m 0 min 0 min 130 W/m 12,6 km/h (3 Bft)
22.04.2015 09:42 6,8 C 7,2 C 94 % 1029,1 hPa 0,0 l/m 0 min 0 min 139 W/m 6,3 km/h (2 Bft)
22.04.2015 09:44 6,9 C 7,2 C 94 % 1029,1 hPa 0,0 l/m 0 min 0 min 146 W/m 4,2 km/h (1 Bft)
22.04.2015 09:46 6,9 C 7,2 C 94 % 1029,1 hPa 0,0 l/m 0 min 0 min 146 W/m 6,3 km/h (2 Bft)
22.04.2015 09:48 6,9 C 7,2 C 94 % 1029,1 hPa 0,0 l/m 0 min 0 min 149 W/m 8,4 km/h (2 Bft)
22.04.2015 09:50 7,0 C 7,2 C 93 % 1029,1 hPa 0,0 l/m 0 min 0 min 156 W/m 8,4 km/h (2 Bft)
22.04.2015 09:52 7,0 C 7,2 C 93 % 1029,1 hPa 0,0 l/m 0 min 0 min 165 W/m 10,5 km/h (2 Bft)
22.04.2015 09:54 6,9 C 7,2 C 93 % 1029,2 hPa 0,0 l/m 0 min 0 min 165 W/m 10,5 km/h (2 Bft)
22.04.2015 09:56 7,0 C 7,2 C 93 % 1029,1 hPa 0,0 l/m 0 min 0 min 161 W/m 6,3 km/h (2 Bft)
22.04.2015 09:58 7,0 C 7,2 C 92 % 1029,2 hPa 0,0 l/m 0 min 0 min 154 W/m 10,5 km/h (2 Bft)
22.04.2015 10:00 7,0 C 7,2 C 92 % 1029,1 hPa 0,0 l/m 0 min 0 min 145 W/m 10,5 km/h (2 Bft)
22.04.2015 10:02 6,9 C 7,2 C 92 % 1029,1 hPa 0,0 l/m 0 min 0 min 159 W/m 12,6 km/h (3 Bft)
22.04.2015 10:04 7,1 C 7,8 C 92 % 1029,1 hPa 0,0 l/m 0 min 0 min 162 W/m 8,4 km/h (2 Bft)
22.04.2015 10:06 7,2 C 7,8 C 92 % 1029,1 hPa 0,0 l/m 0 min 0 min 149 W/m 12,6 km/h (3 Bft)
22.04.2015 10:08 7,2 C 7,2 C 91 % 1029,1 hPa 0,0 l/m 0 min 0 min 150 W/m 16,7 km/h (3 Bft)
22.04.2015 10:10 7,1 C 7,2 C 91 % 1029,1 hPa 0,0 l/m 0 min 0 min 147 W/m 16,7 km/h (3 Bft)
22.04.2015 10:12 7,1 C 7,2 C 90 % 1029,1 hPa 0,0 l/m 0 min 0 min 158 W/m 14,6 km/h (3 Bft)
22.04.2015 10:14 7,1 C 7,2 C 90 % 1029,1 hPa 0,0 l/m 0 min 0 min 143 W/m 12,6 km/h (3 Bft)
22.04.2015 10:16 7,1 C 7,2 C 90 % 1029,1 hPa 0,0 l/m 0 min 0 min 125 W/m 10,5 km/h (2 Bft)
22.04.2015 10:18 7,1 C 7,2 C 90 % 1029,1 hPa 0,0 l/m 0 min 0 min 115 W/m 10,5 km/h (2 Bft)
22.04.2015 10:20 7,2 C 7,2 C 90 % 1029,1 hPa 0,0 l/m 0 min 0 min 131 W/m 12,6 km/h (3 Bft)
22.04.2015 10:22 7,2 C 7,2 C 90 % 1029,1 hPa 0,0 l/m 0 min 0 min 125 W/m 12,6 km/h (3 Bft)
22.04.2015 10:24 7,3 C 7,2 C 90 % 1029,0 hPa 0,0 l/m 0 min 0 min 130 W/m 6,3 km/h (2 Bft)
22.04.2015 10:26 7,4 C 7,8 C 90 % 1029,1 hPa 0,0 l/m 0 min 0 min 160 W/m 8,4 km/h (2 Bft)
22.04.2015 10:28 7,4 C 7,8 C 90 % 1029,1 hPa 0,0 l/m 0 min 0 min 164 W/m 10,5 km/h (2 Bft)
22.04.2015 10:30 7,6 C 7,8 C 90 % 1029,1 hPa 0,0 l/m 0 min 0 min 176 W/m 10,5 km/h (2 Bft)
22.04.2015 10:32 7,7 C 8,3 C 90 % 1029,0 hPa 0,0 l/m 0 min 0 min 199 W/m 8,4 km/h (2 Bft)
22.04.2015 10:34 7,7 C 8,3 C 89 % 1029,1 hPa 0,0 l/m 0 min 0 min 191 W/m 12,6 km/h (3 Bft)
22.04.2015 10:36 7,7 C 7,8 C 89 % 1029,1 hPa 0,0 l/m 0 min 0 min 178 W/m 14,6 km/h (3 Bft)
22.04.2015 10:38 7,6 C 7,8 C 89 % 1029,1 hPa 0,0 l/m 0 min 0 min 153 W/m 20,9 km/h (4 Bft)
22.04.2015 10:40 7,6 C 7,8 C 88 % 1029,1 hPa 0,0 l/m 0 min 0 min 164 W/m 16,7 km/h (3 Bft)
22.04.2015 10:42 7,5 C 7,8 C 88 % 1029,1 hPa 0,0 l/m 0 min 0 min 178 W/m 16,7 km/h (3 Bft)
22.04.2015 10:44 7,6 C 7,8 C 88 % 1029,1 hPa 0,0 l/m 0 min 0 min 196 W/m 12,6 km/h (3 Bft)
22.04.2015 10:46 7,6 C 7,8 C 88 % 1029,0 hPa 0,0 l/m 0 min 0 min 210 W/m 20,9 km/h (4 Bft)
22.04.2015 10:48 7,6 C 7,8 C 87 % 1029,0 hPa 0,0 l/m 0 min 0 min 218 W/m 16,7 km/h (3 Bft)
22.04.2015 10:50 7,7 C 8,3 C 87 % 1029,0 hPa 0,0 l/m 0 min 0 min 233 W/m 16,7 km/h (3 Bft)
22.04.2015 10:52 7,8 C 8,3 C 87 % 1029,0 hPa 0,0 l/m 0 min 0 min 264 W/m 18,8 km/h (3 Bft)
22.04.2015 10:54 8,0 C 8,3 C 87 % 1028,9 hPa 0,0 l/m 2 min 0 min 294 W/m 14,6 km/h (3 Bft)
22.04.2015 10:56 8,1 C 8,9 C 87 % 1029,0 hPa 0,0 l/m 0 min 0 min 257 W/m 12,6 km/h (3 Bft)
22.04.2015 10:58 8,2 C 8,9 C 86 % 1028,8 hPa 0,0 l/m 0 min 0 min 265 W/m 12,6 km/h (3 Bft)
22.04.2015 11:00 8,3 C 8,9 C 86 % 1028,8 hPa 0,0 l/m 2 min 0 min 301 W/m 18,8 km/h (3 Bft)
22.04.2015 11:02 8,4 C 8,9 C 85 % 1028,8 hPa 0,0 l/m 2 min 0 min 313 W/m 12,6 km/h (3 Bft)
22.04.2015 11:04 8,4 C 8,9 C 84 % 1028,8 hPa 0,0 l/m 2 min 0 min 351 W/m 23,0 km/h (4 Bft)
22.04.2015 11:06 8,5 C 9,4 C 84 % 1028,8 hPa 0,0 l/m 2 min 0 min 364 W/m 16,7 km/h (3 Bft)
22.04.2015 11:08 8,7 C 9,4 C 84 % 1028,8 hPa 0,0 l/m 2 min 0 min 453 W/m 12,6 km/h (3 Bft)
22.04.2015 11:10 8,8 C 9,4 C 83 % 1028,8 hPa 0,0 l/m 2 min 0 min 320 W/m 18,8 km/h (3 Bft)
22.04.2015 11:12 8,9 C 9,4 C 83 % 1028,8 hPa 0,0 l/m 0 min 0 min 286 W/m 16,7 km/h (3 Bft)
22.04.2015 11:14 8,9 C 9,4 C 83 % 1028,7 hPa 0,0 l/m 2 min 0 min 311 W/m 18,8 km/h (3 Bft)
22.04.2015 11:16 8,9 C 9,4 C 82 % 1028,6 hPa 0,0 l/m 0 min 0 min 301 W/m 8,4 km/h (2 Bft)
22.04.2015 11:18 9,1 C 9,4 C 82 % 1028,6 hPa 0,0 l/m 2 min 0 min 342 W/m 16,7 km/h (3 Bft)
22.04.2015 11:20 9,1 C 10,0 C 82 % 1028,7 hPa 0,0 l/m 2 min 0 min 340 W/m 10,5 km/h (2 Bft)
22.04.2015 11:22 9,2 C 9,4 C 82 % 1028,7 hPa 0,0 l/m 0 min 0 min 311 W/m 10,5 km/h (2 Bft)
22.04.2015 11:24 9,0 C 9,4 C 81 % 1028,6 hPa 0,0 l/m 2 min 0 min 316 W/m 10,5 km/h (2 Bft)
22.04.2015 11:26 9,1 C 9,4 C 82 % 1028,6 hPa 0,0 l/m 0 min 0 min 271 W/m 10,5 km/h (2 Bft)
22.04.2015 11:28 9,1 C 9,4 C 82 % 1028,7 hPa 0,0 l/m 0 min 0 min 208 W/m 12,6 km/h (3 Bft)
22.04.2015 11:30 9,2 C 9,4 C 82 % 1028,6 hPa 0,0 l/m 0 min 0 min 206 W/m 10,5 km/h (2 Bft)
22.04.2015 11:32 9,2 C 9,4 C 82 % 1028,6 hPa 0,0 l/m 0 min 0 min 263 W/m 14,6 km/h (3 Bft)
22.04.2015 11:34 9,3 C 10,0 C 81 % 1028,5 hPa 0,0 l/m 0 min 0 min 273 W/m 12,6 km/h (3 Bft)
22.04.2015 11:36 9,2 C 9,4 C 81 % 1028,6 hPa 0,0 l/m 0 min 0 min 231 W/m 14,6 km/h (3 Bft)
22.04.2015 11:38 9,4 C 10,0 C 81 % 1028,5 hPa 0,0 l/m 0 min 0 min 246 W/m 12,6 km/h (3 Bft)
22.04.2015 11:40 9,5 C 10,0 C 81 % 1028,5 hPa 0,0 l/m 0 min 0 min 248 W/m 14,6 km/h (3 Bft)
22.04.2015 11:42 9,6 C 10,0 C 80 % 1028,5 hPa 0,0 l/m 0 min 0 min 276 W/m 16,7 km/h (3 Bft)
22.04.2015 11:44 9,6 C 10,0 C 80 % 1028,5 hPa 0,0 l/m 0 min 0 min 288 W/m 10,5 km/h (2 Bft)
22.04.2015 11:46 9,6 C 10,0 C 80 % 1028,5 hPa 0,0 l/m 0 min 0 min 302 W/m 8,4 km/h (2 Bft)
22.04.2015 11:48 9,6 C 10,0 C 80 % 1028,4 hPa 0,0 l/m 0 min 0 min 287 W/m 10,5 km/h (2 Bft)
22.04.2015 11:50 9,7 C 10,0 C 80 % 1028,4 hPa 0,0 l/m 0 min 0 min 324 W/m 12,6 km/h (3 Bft)
22.04.2015 11:52 9,9 C 10,6 C 81 % 1028,4 hPa 0,0 l/m 0 min 0 min 316 W/m 12,6 km/h (3 Bft)
22.04.2015 11:54 10,1 C 10,6 C 80 % 1028,4 hPa 0,0 l/m 0 min 0 min 330 W/m 12,6 km/h (3 Bft)
22.04.2015 11:56 10,3 C 11,1 C 79 % 1028,4 hPa 0,0 l/m 2 min 0 min 473 W/m 14,6 km/h (3 Bft)
22.04.2015 11:58 10,4 C 11,1 C 78 % 1028,4 hPa 0,0 l/m 0 min 0 min 334 W/m 12,6 km/h (3 Bft)
22.04.2015 12:00 10,2 C 10,6 C 77 % 1028,3 hPa 0,0 l/m 0 min 0 min 318 W/m 12,6 km/h (3 Bft)
22.04.2015 12:02 10,3 C 10,6 C 78 % 1028,3 hPa 0,0 l/m 0 min 0 min 334 W/m 14,6 km/h (3 Bft)
22.04.2015 12:04 10,4 C 11,1 C 78 % 1028,3 hPa 0,0 l/m 2 min 0 min 354 W/m 16,7 km/h (3 Bft)
22.04.2015 12:06 10,4 C 11,1 C 77 % 1028,3 hPa 0,0 l/m 2 min 0 min 350 W/m 16,7 km/h (3 Bft)
22.04.2015 12:08 10,4 C 11,1 C 76 % 1028,3 hPa 0,0 l/m 0 min 0 min 333 W/m 16,7 km/h (3 Bft)
22.04.2015 12:10 10,4 C 11,1 C 77 % 1028,2 hPa 0,0 l/m 2 min 0 min 385 W/m 12,6 km/h (3 Bft)
22.04.2015 12:12 10,5 C 11,1 C 76 % 1028,2 hPa 0,0 l/m 0 min 0 min 319 W/m 18,8 km/h (3 Bft)
22.04.2015 12:14 10,5 C 11,1 C 76 % 1028,2 hPa 0,0 l/m 0 min 0 min 311 W/m 18,8 km/h (3 Bft)
22.04.2015 12:16 10,7 C 11,1 C 76 % 1028,2 hPa 0,0 l/m 0 min 0 min 336 W/m 14,6 km/h (3 Bft)
22.04.2015 12:18 10,7 C 11,1 C 76 % 1028,2 hPa 0,0 l/m 2 min 0 min 347 W/m 18,8 km/h (3 Bft)
22.04.2015 12:20 10,8 C 11,1 C 75 % 1028,2 hPa 0,0 l/m 2 min 0 min 486 W/m 16,7 km/h (3 Bft)
22.04.2015 12:22 10,8 C 11,1 C 75 % 1028,1 hPa 0,0 l/m 2 min 0 min 577 W/m 20,9 km/h (4 Bft)
22.04.2015 12:24 10,9 C 11,7 C 75 % 1028,1 hPa 0,0 l/m 2 min 0 min 661 W/m 16,7 km/h (3 Bft)
22.04.2015 12:26 11,1 C 12,2 C 76 % 1028,1 hPa 0,0 l/m 2 min 0 min 1032 W/m 18,8 km/h (3 Bft)
22.04.2015 12:28 11,2 C 12,2 C 76 % 1028,1 hPa 0,0 l/m 2 min 0 min 1032 W/m 20,9 km/h (4 Bft)
22.04.2015 12:30 11,3 C 12,2 C 75 % 1028,1 hPa 0,0 l/m 2 min 0 min 658 W/m 20,9 km/h (4 Bft)
22.04.2015 12:32 11,4 C 12,2 C 73 % 1028,1 hPa 0,0 l/m 2 min 0 min 446 W/m 14,6 km/h (3 Bft)
22.04.2015 12:34 11,5 C 12,2 C 73 % 1028,0 hPa 0,0 l/m 2 min 0 min 409 W/m 14,6 km/h (3 Bft)
22.04.2015 12:36 11,6 C 12,2 C 74 % 1027,9 hPa 0,0 l/m 2 min 0 min 351 W/m 14,6 km/h (3 Bft)
22.04.2015 12:38 11,7 C 12,2 C 73 % 1027,9 hPa 0,0 l/m 0 min 0 min 332 W/m 14,6 km/h (3 Bft)
22.04.2015 12:40 11,8 C 12,2 C 72 % 1027,9 hPa 0,0 l/m 2 min 0 min 958 W/m 23,0 km/h (4 Bft)
22.04.2015 12:42 11,9 C 12,2 C 72 % 1027,8 hPa 0,0 l/m 2 min 0 min 1018 W/m 25,1 km/h (4 Bft)
22.04.2015 12:44 11,9 C 12,2 C 70 % 1027,8 hPa 0,0 l/m 2 min 0 min 469 W/m 20,9 km/h (4 Bft)
22.04.2015 12:46 12,1 C 12,2 C 70 % 1027,8 hPa 0,0 l/m 2 min 0 min 918 W/m 20,9 km/h (4 Bft)
22.04.2015 12:48 12,2 C 12,8 C 70 % 1027,7 hPa 0,0 l/m 2 min 0 min 1020 W/m 20,9 km/h (4 Bft)
22.04.2015 12:50 12,3 C 12,8 C 70 % 1027,7 hPa 0,0 l/m 2 min 0 min 803 W/m 16,7 km/h (3 Bft)
22.04.2015 12:52 12,4 C 12,8 C 69 % 1027,7 hPa 0,0 l/m 0 min 0 min 322 W/m 16,7 km/h (3 Bft)
22.04.2015 12:54 12,5 C 12,8 C 69 % 1027,7 hPa 0,0 l/m 0 min 0 min 340 W/m 23,0 km/h (4 Bft)
22.04.2015 12:56 12,6 C 12,2 C 68 % 1027,7 hPa 0,0 l/m 0 min 0 min 351 W/m 20,9 km/h (4 Bft)
22.04.2015 12:58 12,5 C 12,2 C 68 % 1027,7 hPa 0,0 l/m 0 min 0 min 321 W/m 31,4 km/h (5 Bft)
22.04.2015 13:00 12,4 C 11,7 C 68 % 1027,7 hPa 0,0 l/m 0 min 0 min 265 W/m 31,4 km/h (5 Bft)
22.04.2015 13:02 12,4 C 11,7 C 68 % 1027,7 hPa 0,0 l/m 2 min 0 min 536 W/m 18,8 km/h (3 Bft)
22.04.2015 13:04 12,4 C 12,2 C 68 % 1027,6 hPa 0,0 l/m 2 min 0 min 928 W/m 18,8 km/h (3 Bft)
22.04.2015 13:06 12,4 C 12,2 C 68 % 1027,6 hPa 0,0 l/m 2 min 0 min 956 W/m 16,7 km/h (3 Bft)
22.04.2015 13:08 12,5 C 13,3 C 69 % 1027,5 hPa 0,0 l/m 2 min 0 min 1043 W/m 16,7 km/h (3 Bft)
22.04.2015 13:10 12,7 C 13,9 C 69 % 1027,5 hPa 0,0 l/m 2 min 0 min 1049 W/m 16,7 km/h (3 Bft)
22.04.2015 13:12 12,7 C 13,3 C 68 % 1027,5 hPa 0,0 l/m 2 min 0 min 1048 W/m 18,8 km/h (3 Bft)
22.04.2015 13:14 12,8 C 13,3 C 67 % 1027,5 hPa 0,0 l/m 2 min 0 min 774 W/m 23,0 km/h (4 Bft)
22.04.2015 13:16 12,8 C 12,8 C 67 % 1027,5 hPa 0,0 l/m 0 min 0 min 357 W/m 23,0 km/h (4 Bft)
22.04.2015 13:18 12,8 C 12,8 C 67 % 1027,5 hPa 0,0 l/m 0 min 0 min 345 W/m 20,9 km/h (4 Bft)
22.04.2015 13:20 12,8 C 12,8 C 67 % 1027,3 hPa 0,0 l/m 0 min 0 min 313 W/m 16,7 km/h (3 Bft)
22.04.2015 13:22 12,8 C 12,2 C 67 % 1027,3 hPa 0,0 l/m 2 min 0 min 825 W/m 23,0 km/h (4 Bft)
22.04.2015 13:24 12,7 C 12,2 C 67 % 1027,2 hPa 0,0 l/m 0 min 0 min 282 W/m 16,7 km/h (3 Bft)
22.04.2015 13:26 12,7 C 13,3 C 67 % 1027,2 hPa 0,0 l/m 2 min 0 min 830 W/m 27,2 km/h (4 Bft)
22.04.2015 13:28 12,8 C 14,4 C 67 % 1027,2 hPa 0,0 l/m 2 min 0 min 873 W/m 20,9 km/h (4 Bft)
22.04.2015 13:30 12,8 C 13,9 C 68 % 1027,2 hPa 0,0 l/m 2 min 0 min 865 W/m 20,9 km/h (4 Bft)
22.04.2015 13:32 12,9 C 13,3 C 66 % 1027,3 hPa 0,0 l/m 2 min 0 min 867 W/m 20,9 km/h (4 Bft)
22.04.2015 13:34 13,0 C 13,3 C 66 % 1027,1 hPa 0,0 l/m 2 min 0 min 909 W/m 20,9 km/h (4 Bft)
22.04.2015 13:36 13,1 C 13,3 C 67 % 1027,2 hPa 0,0 l/m 2 min 0 min 929 W/m 27,2 km/h (4 Bft)
22.04.2015 13:38 13,2 C 13,3 C 66 % 1027,1 hPa 0,0 l/m 2 min 0 min 987 W/m 25,1 km/h (4 Bft)
22.04.2015 13:40 13,2 C 13,3 C 66 % 1027,1 hPa 0,0 l/m 2 min 0 min 590 W/m 23,0 km/h (4 Bft)
22.04.2015 13:42 13,2 C 12,8 C 65 % 1027,1 hPa 0,0 l/m 0 min 0 min 290 W/m 18,8 km/h (3 Bft)
22.04.2015 13:44 13,2 C 12,2 C 65 % 1027,1 hPa 0,0 l/m 0 min 0 min 320 W/m 23,0 km/h (4 Bft)
22.04.2015 13:46 13,2 C 12,8 C 66 % 1027,0 hPa 0,0 l/m 2 min 0 min 914 W/m 16,7 km/h (3 Bft)
22.04.2015 13:48 13,3 C 13,3 C 66 % 1027,0 hPa 0,0 l/m 2 min 0 min 954 W/m 23,0 km/h (4 Bft)
22.04.2015 13:50 13,3 C 13,3 C 65 % 1026,9 hPa 0,0 l/m 2 min 0 min 429 W/m 18,8 km/h (3 Bft)
22.04.2015 13:52 13,4 C 13,3 C 66 % 1026,9 hPa 0,0 l/m 0 min 0 min 350 W/m 20,9 km/h (4 Bft)
22.04.2015 13:54 13,4 C 12,8 C 66 % 1026,8 hPa 0,0 l/m 0 min 0 min 217 W/m 14,6 km/h (3 Bft)
22.04.2015 13:56 13,6 C 13,3 C 67 % 1026,8 hPa 0,0 l/m 2 min 0 min 513 W/m 12,6 km/h (3 Bft)
22.04.2015 13:58 13,6 C 13,3 C 66 % 1026,8 hPa 0,0 l/m 2 min 0 min 900 W/m 20,9 km/h (4 Bft)
22.04.2015 14:00 13,7 C 13,3 C 65 % 1026,8 hPa 0,0 l/m 2 min 0 min 931 W/m 18,8 km/h (3 Bft)
22.04.2015 14:02 13,8 C 13,9 C 64 % 1026,6 hPa 0,0 l/m 2 min 0 min 966 W/m 10,5 km/h (2 Bft)
22.04.2015 14:04 13,9 C 13,9 C 65 % 1026,6 hPa 0,0 l/m 2 min 0 min 969 W/m 16,7 km/h (3 Bft)
22.04.2015 14:06 13,9 C 13,9 C 64 % 1026,6 hPa 0,0 l/m 2 min 0 min 644 W/m 23,0 km/h (4 Bft)
22.04.2015 14:08 14,0 C 13,9 C 64 % 1026,7 hPa 0,0 l/m 2 min 0 min 532 W/m 23,0 km/h (4 Bft)
22.04.2015 14:10 14,1 C 13,9 C 63 % 1026,6 hPa 0,0 l/m 2 min 0 min 363 W/m 20,9 km/h (4 Bft)
22.04.2015 14:12 14,1 C 13,9 C 64 % 1026,5 hPa 0,0 l/m 0 min 0 min 350 W/m 14,6 km/h (3 Bft)
22.04.2015 14:14 14,2 C 13,3 C 64 % 1026,5 hPa 0,0 l/m 0 min 0 min 278 W/m 14,6 km/h (3 Bft)
22.04.2015 14:16 14,2 C 13,3 C 63 % 1026,5 hPa 0,0 l/m 0 min 0 min 274 W/m 20,9 km/h (4 Bft)
22.04.2015 14:18 14,1 C 12,8 C 63 % 1026,5 hPa 0,0 l/m 0 min 0 min 258 W/m 18,8 km/h (3 Bft)
22.04.2015 14:20 14,1 C 12,8 C 63 % 1026,4 hPa 0,0 l/m 2 min 0 min 537 W/m 23,0 km/h (4 Bft)
22.04.2015 14:22 14,1 C 12,8 C 62 % 1026,5 hPa 0,0 l/m 2 min 0 min 804 W/m 29,3 km/h (5 Bft)
22.04.2015 14:24 14,1 C 12,8 C 61 % 1026,5 hPa 0,0 l/m 2 min 0 min 795 W/m 25,1 km/h (4 Bft)
22.04.2015 14:26 14,1 C 12,8 C 62 % 1026,4 hPa 0,0 l/m 2 min 0 min 793 W/m 20,9 km/h (4 Bft)
22.04.2015 14:28 14,1 C 12,8 C 62 % 1026,3 hPa 0,0 l/m 2 min 0 min 783 W/m 23,0 km/h (4 Bft)
22.04.2015 14:30 14,2 C 13,3 C 63 % 1026,4 hPa 0,0 l/m 2 min 0 min 783 W/m 29,3 km/h (5 Bft)
22.04.2015 14:32 14,2 C 13,3 C 62 % 1026,3 hPa 0,0 l/m 2 min 0 min 787 W/m 29,3 km/h (5 Bft)
22.04.2015 14:34 14,2 C 13,3 C 63 % 1026,1 hPa 0,0 l/m 2 min 0 min 777 W/m 20,9 km/h (4 Bft)
22.04.2015 14:36 14,2 C 13,3 C 62 % 1026,1 hPa 0,0 l/m 2 min 0 min 774 W/m 20,9 km/h (4 Bft)
22.04.2015 14:38 14,3 C 13,3 C 63 % 1026,2 hPa 0,0 l/m 2 min 0 min 768 W/m 23,0 km/h (4 Bft)
22.04.2015 14:40 14,4 C 13,9 C 63 % 1026,1 hPa 0,0 l/m 2 min 0 min 808 W/m 16,7 km/h (3 Bft)
22.04.2015 14:44 14,6 C 13,9 C 63 % 1026,1 hPa 0,0 l/m 2 min 0 min 852 W/m 29,3 km/h (5 Bft)
22.04.2015 14:46 14,6 C 13,3 C 62 % 1026,1 hPa 0,0 l/m 2 min 0 min 692 W/m 23,0 km/h (4 Bft)
22.04.2015 14:48 14,5 C 13,3 C 62 % 1026,0 hPa 0,0 l/m 0 min 0 min 246 W/m 23,0 km/h (4 Bft)
22.04.2015 14:50 14,5 C 13,3 C 63 % 1026,0 hPa 0,0 l/m 2 min 0 min 378 W/m 18,8 km/h (3 Bft)
22.04.2015 14:52 14,5 C 13,3 C 62 % 1026,0 hPa 0,0 l/m 2 min 0 min 483 W/m 23,0 km/h (4 Bft)
22.04.2015 14:54 14,5 C 13,3 C 63 % 1026,0 hPa 0,0 l/m 2 min 0 min 778 W/m 23,0 km/h (4 Bft)
22.04.2015 14:56 14,5 C 13,3 C 63 % 1025,9 hPa 0,0 l/m 2 min 0 min 771 W/m 18,8 km/h (3 Bft)
22.04.2015 14:58 14,6 C 13,3 C 63 % 1025,9 hPa 0,0 l/m 2 min 0 min 784 W/m 14,6 km/h (3 Bft)
22.04.2015 15:00 14,6 C 13,3 C 62 % 1026,0 hPa 0,0 l/m 2 min 0 min 771 W/m 16,7 km/h (3 Bft)
22.04.2015 15:02 14,6 C 13,3 C 62 % 1025,9 hPa 0,0 l/m 2 min 0 min 751 W/m 10,5 km/h (2 Bft)
22.04.2015 15:04 14,7 C 13,9 C 63 % 1025,9 hPa 0,0 l/m 2 min 0 min 740 W/m 14,6 km/h (3 Bft)
22.04.2015 15:06 14,8 C 13,9 C 63 % 1025,9 hPa 0,0 l/m 2 min 0 min 724 W/m 20,9 km/h (4 Bft)
22.04.2015 15:08 14,8 C 13,9 C 62 % 1025,8 hPa 0,0 l/m 2 min 0 min 746 W/m 20,9 km/h (4 Bft)
22.04.2015 15:10 14,9 C 13,9 C 61 % 1025,7 hPa 0,0 l/m 2 min 0 min 739 W/m 16,7 km/h (3 Bft)
22.04.2015 15:12 14,9 C 13,9 C 62 % 1025,6 hPa 0,0 l/m 2 min 0 min 738 W/m 18,8 km/h (3 Bft)
22.04.2015 15:14 15,1 C 14,4 C 62 % 1025,5 hPa 0,0 l/m 2 min 0 min 731 W/m 20,9 km/h (4 Bft)
22.04.2015 15:16 15,1 C 14,4 C 62 % 1025,5 hPa 0,0 l/m 2 min 0 min 730 W/m 20,9 km/h (4 Bft)
22.04.2015 15:18 15,2 C 13,9 C 61 % 1025,4 hPa 0,0 l/m 2 min 0 min 733 W/m 20,9 km/h (4 Bft)
22.04.2015 15:20 15,2 C 14,4 C 62 % 1025,4 hPa 0,0 l/m 2 min 0 min 741 W/m 20,9 km/h (4 Bft)
22.04.2015 15:22 15,3 C 14,4 C 62 % 1025,3 hPa 0,0 l/m 2 min 0 min 744 W/m 10,5 km/h (2 Bft)
22.04.2015 15:24 15,4 C 14,4 C 62 % 1025,4 hPa 0,0 l/m 2 min 0 min 736 W/m 29,3 km/h (5 Bft)
22.04.2015 15:26 15,4 C 14,4 C 61 % 1025,4 hPa 0,0 l/m 2 min 0 min 755 W/m 29,3 km/h (5 Bft)
22.04.2015 15:28 15,3 C 14,4 C 61 % 1025,4 hPa 0,0 l/m 2 min 0 min 752 W/m 29,3 km/h (5 Bft)
22.04.2015 15:30 15,3 C 14,4 C 61 % 1025,4 hPa 0,0 l/m 2 min 0 min 738 W/m 18,8 km/h (3 Bft)
22.04.2015 15:32 15,3 C 14,4 C 62 % 1025,3 hPa 0,0 l/m 2 min 0 min 755 W/m 16,7 km/h (3 Bft)
22.04.2015 15:34 15,3 C 15,0 C 63 % 1025,3 hPa 0,0 l/m 2 min 0 min 722 W/m 23,0 km/h (4 Bft)
22.04.2015 15:36 15,4 C 15,0 C 61 % 1025,3 hPa 0,0 l/m 2 min 0 min 682 W/m 23,0 km/h (4 Bft)
22.04.2015 15:38 15,4 C 15,0 C 61 % 1025,3 hPa 0,0 l/m 2 min 0 min 702 W/m 27,2 km/h (4 Bft)
22.04.2015 15:40 15,4 C 15,0 C 61 % 1025,2 hPa 0,0 l/m 2 min 0 min 700 W/m 23,0 km/h (4 Bft)
22.04.2015 15:42 15,5 C 15,0 C 61 % 1025,2 hPa 0,0 l/m 2 min 0 min 685 W/m 20,9 km/h (4 Bft)
22.04.2015 15:44 15,4 C 15,0 C 59 % 1025,2 hPa 0,0 l/m 2 min 0 min 676 W/m 23,0 km/h (4 Bft)
22.04.2015 15:46 15,4 C 14,4 C 59 % 1025,2 hPa 0,0 l/m 2 min 0 min 677 W/m 23,0 km/h (4 Bft)
22.04.2015 15:48 15,4 C 14,4 C 59 % 1025,2 hPa 0,0 l/m 2 min 0 min 672 W/m 23,0 km/h (4 Bft)
22.04.2015 15:50 15,4 C 14,4 C 60 % 1025,2 hPa 0,0 l/m 2 min 0 min 667 W/m 25,1 km/h (4 Bft)
22.04.2015 15:52 15,4 C 15,0 C 60 % 1025,2 hPa 0,0 l/m 2 min 0 min 672 W/m 23,0 km/h (4 Bft)
22.04.2015 15:54 15,4 C 15,0 C 60 % 1025,1 hPa 0,0 l/m 2 min 0 min 662 W/m 16,7 km/h (3 Bft)
22.04.2015 15:56 15,4 C 15,0 C 60 % 1025,1 hPa 0,0 l/m 2 min 0 min 662 W/m 14,6 km/h (3 Bft)
22.04.2015 15:58 15,5 C 15,0 C 61 % 1025,1 hPa 0,0 l/m 2 min 0 min 660 W/m 23,0 km/h (4 Bft)
22.04.2015 16:00 15,5 C 15,0 C 60 % 1025,1 hPa 0,0 l/m 2 min 0 min 658 W/m 20,9 km/h (4 Bft)
22.04.2015 16:02 15,5 C 15,0 C 60 % 1024,9 hPa 0,0 l/m 2 min 0 min 655 W/m 16,7 km/h (3 Bft)
22.04.2015 16:04 15,6 C 15,0 C 60 % 1025,0 hPa 0,0 l/m 2 min 0 min 646 W/m 20,9 km/h (4 Bft)
22.04.2015 16:06 15,6 C 15,6 C 60 % 1025,0 hPa 0,0 l/m 2 min 0 min 644 W/m 20,9 km/h (4 Bft)
22.04.2015 16:08 15,6 C 15,0 C 59 % 1024,9 hPa 0,0 l/m 2 min 0 min 632 W/m 18,8 km/h (3 Bft)
22.04.2015 16:10 15,6 C 15,6 C 59 % 1024,9 hPa 0,0 l/m 2 min 0 min 624 W/m 20,9 km/h (4 Bft)
22.04.2015 16:12 15,7 C 15,6 C 59 % 1024,9 hPa 0,0 l/m 2 min 0 min 633 W/m 23,0 km/h (4 Bft)
22.04.2015 16:14 15,7 C 15,6 C 59 % 1024,8 hPa 0,0 l/m 2 min 0 min 623 W/m 20,9 km/h (4 Bft)
22.04.2015 16:16 15,7 C 15,6 C 59 % 1024,8 hPa 0,0 l/m 2 min 0 min 614 W/m 18,8 km/h (3 Bft)
22.04.2015 16:18 15,8 C 16,1 C 59 % 1025,0 hPa 0,0 l/m 2 min 0 min 615 W/m 18,8 km/h (3 Bft)
22.04.2015 16:20 15,7 C 15,6 C 58 % 1024,9 hPa 0,0 l/m 2 min 0 min 611 W/m 25,1 km/h (4 Bft)
22.04.2015 16:22 15,7 C 15,6 C 58 % 1024,8 hPa 0,0 l/m 2 min 0 min 606 W/m 14,6 km/h (3 Bft)
22.04.2015 16:24 15,8 C 16,1 C 59 % 1024,8 hPa 0,0 l/m 2 min 0 min 604 W/m 16,7 km/h (3 Bft)
22.04.2015 16:26 15,8 C 16,1 C 59 % 1024,8 hPa 0,0 l/m 2 min 0 min 605 W/m 20,9 km/h (4 Bft)
22.04.2015 16:28 15,8 C 16,1 C 58 % 1024,8 hPa 0,0 l/m 2 min 0 min 572 W/m 23,0 km/h (4 Bft)
22.04.2015 16:30 15,8 C 16,1 C 58 % 1024,9 hPa 0,0 l/m 2 min 0 min 593 W/m 18,8 km/h (3 Bft)
22.04.2015 16:32 15,8 C 16,1 C 58 % 1024,8 hPa 0,0 l/m 2 min 0 min 597 W/m 20,9 km/h (4 Bft)
22.04.2015 16:34 15,8 C 16,1 C 59 % 1024,9 hPa 0,0 l/m 2 min 0 min 584 W/m 18,8 km/h (3 Bft)
22.04.2015 16:36 15,8 C 15,6 C 59 % 1024,9 hPa 0,0 l/m 2 min 0 min 601 W/m 16,7 km/h (3 Bft)
22.04.2015 16:38 15,8 C 15,6 C 59 % 1024,9 hPa 0,0 l/m 2 min 0 min 593 W/m 16,7 km/h (3 Bft)
22.04.2015 16:40 15,8 C 16,1 C 59 % 1024,8 hPa 0,0 l/m 2 min 0 min 586 W/m 20,9 km/h (4 Bft)
22.04.2015 16:42 15,8 C 16,1 C 59 % 1024,8 hPa 0,0 l/m 2 min 0 min 578 W/m 23,0 km/h (4 Bft)
22.04.2015 16:44 15,9 C 15,6 C 58 % 1024,8 hPa 0,0 l/m 2 min 0 min 563 W/m 25,1 km/h (4 Bft)
22.04.2015 16:46 15,9 C 15,6 C 58 % 1024,8 hPa 0,0 l/m 2 min 0 min 562 W/m 18,8 km/h (3 Bft)
22.04.2015 16:48 15,9 C 15,6 C 58 % 1024,7 hPa 0,0 l/m 2 min 0 min 564 W/m 16,7 km/h (3 Bft)
22.04.2015 16:50 15,9 C 16,1 C 59 % 1024,6 hPa 0,0 l/m 2 min 0 min 571 W/m 14,6 km/h (3 Bft)
22.04.2015 16:52 15,9 C 16,1 C 59 % 1024,6 hPa 0,0 l/m 2 min 0 min 573 W/m 20,9 km/h (4 Bft)
22.04.2015 16:54 15,9 C 16,1 C 59 % 1024,6 hPa 0,0 l/m 2 min 0 min 564 W/m 25,1 km/h (4 Bft)
22.04.2015 16:56 16,0 C 16,1 C 59 % 1024,6 hPa 0,0 l/m 2 min 0 min 567 W/m 25,1 km/h (4 Bft)
22.04.2015 16:58 16,1 C 16,1 C 58 % 1024,6 hPa 0,0 l/m 2 min 0 min 560 W/m 23,0 km/h (4 Bft)
22.04.2015 17:00 16,1 C 15,6 C 59 % 1024,6 hPa 0,0 l/m 2 min 0 min 564 W/m 18,8 km/h (3 Bft)
22.04.2015 17:02 16,2 C 15,6 C 58 % 1024,5 hPa 0,0 l/m 0 min 0 min 247 W/m 27,2 km/h (4 Bft)
22.04.2015 17:04 16,2 C 15,0 C 59 % 1024,6 hPa 0,0 l/m 2 min 0 min 502 W/m 27,2 km/h (4 Bft)
22.04.2015 17:06 16,2 C 15,0 C 58 % 1024,5 hPa 0,0 l/m 2 min 0 min 264 W/m 25,1 km/h (4 Bft)
22.04.2015 17:08 16,1 C 15,0 C 58 % 1024,5 hPa 0,0 l/m 0 min 0 min 142 W/m 25,1 km/h (4 Bft)
22.04.2015 17:10 16,1 C 15,0 C 58 % 1024,6 hPa 0,0 l/m 2 min 0 min 349 W/m 23,0 km/h (4 Bft)
22.04.2015 17:12 16,0 C 15,0 C 58 % 1024,6 hPa 0,0 l/m 2 min 0 min 518 W/m 27,2 km/h (4 Bft)
22.04.2015 17:14 15,9 C 14,4 C 58 % 1024,4 hPa 0,0 l/m 2 min 0 min 519 W/m 29,3 km/h (5 Bft)
22.04.2015 17:16 15,8 C 14,4 C 58 % 1024,5 hPa 0,0 l/m 2 min 0 min 503 W/m 23,0 km/h (4 Bft)
22.04.2015 17:18 15,8 C 14,4 C 59 % 1024,4 hPa 0,0 l/m 2 min 0 min 499 W/m 25,1 km/h (4 Bft)
22.04.2015 17:20 15,9 C 14,4 C 59 % 1024,4 hPa 0,0 l/m 2 min 0 min 499 W/m 18,8 km/h (3 Bft)
22.04.2015 17:22 15,9 C 14,4 C 58 % 1024,3 hPa 0,0 l/m 2 min 0 min 501 W/m 25,1 km/h (4 Bft)
22.04.2015 17:24 16,0 C 14,4 C 59 % 1024,3 hPa 0,0 l/m 2 min 0 min 500 W/m 25,1 km/h (4 Bft)
22.04.2015 17:26 16,0 C 14,4 C 58 % 1024,4 hPa 0,0 l/m 2 min 0 min 478 W/m 18,8 km/h (3 Bft)
22.04.2015 17:28 16,1 C 14,4 C 57 % 1024,3 hPa 0,0 l/m 2 min 0 min 440 W/m 16,7 km/h (3 Bft)
22.04.2015 17:30 16,1 C 14,4 C 58 % 1024,4 hPa 0,0 l/m 2 min 0 min 429 W/m 23,0 km/h (4 Bft)
22.04.2015 17:32 16,1 C 14,4 C 58 % 1024,2 hPa 0,0 l/m 2 min 0 min 461 W/m 16,7 km/h (3 Bft)
22.04.2015 17:34 16,0 C 14,4 C 58 % 1024,3 hPa 0,0 l/m 2 min 0 min 457 W/m 18,8 km/h (3 Bft)
22.04.2015 17:36 15,9 C 13,9 C 58 % 1024,2 hPa 0,0 l/m 2 min 0 min 467 W/m 16,7 km/h (3 Bft)
22.04.2015 17:38 15,9 C 13,9 C 58 % 1024,2 hPa 0,0 l/m 2 min 0 min 469 W/m 18,8 km/h (3 Bft)
22.04.2015 17:40 15,8 C 13,9 C 59 % 1024,2 hPa 0,0 l/m 2 min 0 min 457 W/m 29,3 km/h (5 Bft)
22.04.2015 17:42 15,8 C 13,9 C 58 % 1024,1 hPa 0,0 l/m 2 min 0 min 431 W/m 12,6 km/h (3 Bft)
22.04.2015 17:44 15,8 C 13,9 C 59 % 1024,2 hPa 0,0 l/m 2 min 0 min 424 W/m 27,2 km/h (4 Bft)
22.04.2015 17:46 15,7 C 13,9 C 59 % 1024,2 hPa 0,0 l/m 2 min 0 min 418 W/m 20,9 km/h (4 Bft)
22.04.2015 17:48 15,7 C 13,9 C 59 % 1024,3 hPa 0,0 l/m 2 min 0 min 405 W/m 18,8 km/h (3 Bft)
22.04.2015 17:50 15,7 C 13,9 C 59 % 1024,2 hPa 0,0 l/m 2 min 0 min 391 W/m 16,7 km/h (3 Bft)
22.04.2015 17:52 15,7 C 13,9 C 59 % 1024,1 hPa 0,0 l/m 2 min 0 min 389 W/m 16,7 km/h (3 Bft)
22.04.2015 17:54 15,7 C 13,9 C 58 % 1024,1 hPa 0,0 l/m 2 min 0 min 363 W/m 16,7 km/h (3 Bft)
22.04.2015 17:56 15,6 C 13,9 C 58 % 1024,1 hPa 0,0 l/m 2 min 0 min 355 W/m 14,6 km/h (3 Bft)
22.04.2015 17:58 15,6 C 13,9 C 59 % 1024,1 hPa 0,0 l/m 2 min 0 min 366 W/m 18,8 km/h (3 Bft)
22.04.2015 18:00 15,6 C 13,9 C 59 % 1024,1 hPa 0,0 l/m 2 min 0 min 369 W/m 12,6 km/h (3 Bft)
22.04.2015 18:02 15,6 C 13,9 C 60 % 1024,1 hPa 0,0 l/m 2 min 0 min 262 W/m 27,2 km/h (4 Bft)
22.04.2015 18:04 15,5 C 13,9 C 59 % 1024,2 hPa 0,0 l/m 2 min 0 min 207 W/m 18,8 km/h (3 Bft)
22.04.2015 18:06 15,5 C 13,9 C 59 % 1024,2 hPa 0,0 l/m 2 min 0 min 349 W/m 18,8 km/h (3 Bft)
22.04.2015 18:08 15,5 C 13,9 C 59 % 1024,0 hPa 0,0 l/m 2 min 0 min 365 W/m 14,6 km/h (3 Bft)
22.04.2015 18:10 15,5 C 13,9 C 59 % 1024,0 hPa 0,0 l/m 2 min 0 min 363 W/m 18,8 km/h (3 Bft)
22.04.2015 18:12 15,5 C 13,9 C 60 % 1024,1 hPa 0,0 l/m 2 min 0 min 286 W/m 18,8 km/h (3 Bft)
22.04.2015 18:14 15,5 C 13,9 C 60 % 1024,0 hPa 0,0 l/m 2 min 0 min 319 W/m 20,9 km/h (4 Bft)
22.04.2015 18:16 15,5 C 13,9 C 60 % 1023,9 hPa 0,0 l/m 2 min 0 min 373 W/m 18,8 km/h (3 Bft)
22.04.2015 18:18 15,5 C 13,9 C 59 % 1023,9 hPa 0,0 l/m 2 min 0 min 363 W/m 16,7 km/h (3 Bft)
22.04.2015 18:20 15,5 C 13,9 C 60 % 1023,9 hPa 0,0 l/m 2 min 0 min 348 W/m 20,9 km/h (4 Bft)
22.04.2015 18:22 15,5 C 13,9 C 60 % 1023,9 hPa 0,0 l/m 2 min 0 min 335 W/m 25,1 km/h (4 Bft)
22.04.2015 18:24 15,5 C 13,9 C 59 % 1024,0 hPa 0,0 l/m 2 min 0 min 328 W/m 18,8 km/h (3 Bft)
22.04.2015 18:26 15,5 C 13,9 C 59 % 1023,9 hPa 0,0 l/m 2 min 0 min 319 W/m 18,8 km/h (3 Bft)
22.04.2015 18:28 15,5 C 13,3 C 59 % 1024,0 hPa 0,0 l/m 2 min 0 min 311 W/m 18,8 km/h (3 Bft)
22.04.2015 18:30 15,5 C 13,3 C 60 % 1023,8 hPa 0,0 l/m 2 min 0 min 298 W/m 14,6 km/h (3 Bft)
22.04.2015 18:32 15,5 C 13,3 C 60 % 1023,9 hPa 0,0 l/m 2 min 0 min 297 W/m 10,5 km/h (2 Bft)
22.04.2015 18:34 15,5 C 13,3 C 59 % 1023,9 hPa 0,0 l/m 2 min 0 min 289 W/m 20,9 km/h (4 Bft)
22.04.2015 18:36 15,5 C 13,3 C 60 % 1023,9 hPa 0,0 l/m 2 min 0 min 285 W/m 18,8 km/h (3 Bft)
22.04.2015 18:38 15,4 C 13,3 C 60 % 1023,9 hPa 0,0 l/m 2 min 0 min 286 W/m 18,8 km/h (3 Bft)
22.04.2015 18:40 15,4 C 13,3 C 60 % 1023,9 hPa 0,0 l/m 2 min 0 min 280 W/m 20,9 km/h (4 Bft)
22.04.2015 18:42 15,3 C 13,3 C 60 % 1023,9 hPa 0,0 l/m 2 min 0 min 270 W/m 23,0 km/h (4 Bft)
22.04.2015 18:44 15,3 C 13,3 C 60 % 1023,9 hPa 0,0 l/m 2 min 0 min 260 W/m 18,8 km/h (3 Bft)
22.04.2015 18:46 15,2 C 13,3 C 60 % 1023,8 hPa 0,0 l/m 2 min 0 min 249 W/m 18,8 km/h (3 Bft)
22.04.2015 18:48 15,2 C 13,3 C 61 % 1023,8 hPa 0,0 l/m 2 min 0 min 246 W/m 10,5 km/h (2 Bft)
22.04.2015 18:50 15,2 C 13,3 C 61 % 1023,8 hPa 0,0 l/m 2 min 0 min 241 W/m 14,6 km/h (3 Bft)
22.04.2015 18:52 15,2 C 13,3 C 62 % 1023,8 hPa 0,0 l/m 2 min 0 min 214 W/m 18,8 km/h (3 Bft)
22.04.2015 18:54 15,2 C 13,3 C 62 % 1023,8 hPa 0,0 l/m 2 min 0 min 215 W/m 16,7 km/h (3 Bft)
22.04.2015 18:56 15,2 C 13,3 C 62 % 1023,8 hPa 0,0 l/m 2 min 0 min 216 W/m 16,7 km/h (3 Bft)
22.04.2015 18:58 15,2 C 13,3 C 61 % 1023,8 hPa 0,0 l/m 2 min 0 min 202 W/m 16,7 km/h (3 Bft)
22.04.2015 19:00 15,1 C 13,3 C 61 % 1023,7 hPa 0,0 l/m 0 min 0 min 104 W/m 14,6 km/h (3 Bft)
22.04.2015 19:02 15,1 C 12,8 C 61 % 1023,8 hPa 0,0 l/m 0 min 0 min 63 W/m 20,9 km/h (4 Bft)
22.04.2015 19:04 15,0 C 12,8 C 61 % 1023,8 hPa 0,0 l/m 0 min 0 min 57 W/m 18,8 km/h (3 Bft)
22.04.2015 19:06 14,9 C 12,8 C 61 % 1023,8 hPa 0,0 l/m 0 min 0 min 56 W/m 16,7 km/h (3 Bft)
22.04.2015 19:08 14,8 C 12,8 C 61 % 1023,8 hPa 0,0 l/m 0 min 0 min 56 W/m 12,6 km/h (3 Bft)
22.04.2015 19:10 14,7 C 12,2 C 62 % 1023,8 hPa 0,0 l/m 0 min 0 min 57 W/m 10,5 km/h (2 Bft)
22.04.2015 19:12 14,7 C 12,2 C 62 % 1023,7 hPa 0,0 l/m 0 min 0 min 55 W/m 10,5 km/h (2 Bft)
22.04.2015 19:14 14,6 C 12,2 C 62 % 1023,7 hPa 0,0 l/m 0 min 0 min 53 W/m 16,7 km/h (3 Bft)
22.04.2015 19:16 14,5 C 12,2 C 62 % 1023,7 hPa 0,0 l/m 0 min 0 min 53 W/m 16,7 km/h (3 Bft)
22.04.2015 19:18 14,4 C 12,2 C 62 % 1023,8 hPa 0,0 l/m 0 min 0 min 54 W/m 10,5 km/h (2 Bft)
22.04.2015 19:20 14,4 C 12,2 C 63 % 1023,8 hPa 0,0 l/m 0 min 0 min 62 W/m 14,6 km/h (3 Bft)
22.04.2015 19:22 14,3 C 12,2 C 63 % 1023,8 hPa 0,0 l/m 0 min 0 min 64 W/m 14,6 km/h (3 Bft)
22.04.2015 19:24 14,3 C 12,2 C 63 % 1023,8 hPa 0,0 l/m 0 min 0 min 64 W/m 10,5 km/h (2 Bft)
22.04.2015 19:26 14,2 C 12,2 C 63 % 1023,8 hPa 0,0 l/m 0 min 0 min 64 W/m 14,6 km/h (3 Bft)
22.04.2015 19:28 14,2 C 12,2 C 63 % 1023,8 hPa 0,0 l/m 0 min 0 min 56 W/m 14,6 km/h (3 Bft)
22.04.2015 19:30 14,2 C 12,2 C 63 % 1023,7 hPa 0,0 l/m 0 min 0 min 58 W/m 12,6 km/h (3 Bft)
22.04.2015 19:32 14,2 C 12,2 C 63 % 1023,7 hPa 0,0 l/m 0 min 0 min 53 W/m 14,6 km/h (3 Bft)
22.04.2015 19:34 14,2 C 12,2 C 63 % 1023,7 hPa 0,0 l/m 0 min 0 min 49 W/m 12,6 km/h (3 Bft)
22.04.2015 19:36 14,2 C 12,2 C 63 % 1023,7 hPa 0,0 l/m 0 min 0 min 50 W/m 14,6 km/h (3 Bft)
22.04.2015 19:38 14,2 C 12,2 C 63 % 1023,6 hPa 0,0 l/m 0 min 0 min 51 W/m 16,7 km/h (3 Bft)
22.04.2015 19:40 14,1 C 12,2 C 64 % 1023,6 hPa 0,0 l/m 0 min 0 min 53 W/m 10,5 km/h (2 Bft)
22.04.2015 19:42 14,1 C 12,2 C 64 % 1023,6 hPa 0,0 l/m 0 min 0 min 53 W/m 12,6 km/h (3 Bft)
22.04.2015 19:44 14,1 C 12,2 C 64 % 1023,6 hPa 0,0 l/m 0 min 0 min 53 W/m 14,6 km/h (3 Bft)
22.04.2015 19:46 14,0 C 12,2 C 64 % 1023,6 hPa 0,0 l/m 0 min 0 min 51 W/m 14,6 km/h (3 Bft)
22.04.2015 19:48 14,0 C 12,2 C 64 % 1023,7 hPa 0,0 l/m 0 min 0 min 53 W/m 14,6 km/h (3 Bft)
22.04.2015 19:50 13,9 C 12,2 C 65 % 1023,6 hPa 0,0 l/m 2 min 0 min 56 W/m 12,6 km/h (3 Bft)
22.04.2015 19:52 13,9 C 12,2 C 65 % 1023,6 hPa 0,0 l/m 2 min 0 min 54 W/m 16,7 km/h (3 Bft)
22.04.2015 19:54 13,9 C 12,2 C 65 % 1023,6 hPa 0,0 l/m 2 min 0 min 57 W/m 14,6 km/h (3 Bft)
22.04.2015 19:56 13,9 C 12,2 C 65 % 1023,6 hPa 0,0 l/m 2 min 0 min 55 W/m 14,6 km/h (3 Bft)
22.04.2015 19:58 13,9 C 12,2 C 65 % 1023,6 hPa 0,0 l/m 2 min 0 min 51 W/m 23,0 km/h (4 Bft)
22.04.2015 20:00 13,8 C 12,2 C 65 % 1023,7 hPa 0,0 l/m 2 min 0 min 48 W/m 23,0 km/h (4 Bft)
22.04.2015 20:02 13,8 C 11,7 C 65 % 1023,7 hPa 0,0 l/m 2 min 0 min 46 W/m 14,6 km/h (3 Bft)
22.04.2015 20:04 13,8 C 11,7 C 65 % 1023,7 hPa 0,0 l/m 2 min 0 min 44 W/m 12,6 km/h (3 Bft)
22.04.2015 20:06 13,8 C 11,7 C 65 % 1023,8 hPa 0,0 l/m 2 min 0 min 42 W/m 16,7 km/h (3 Bft)
22.04.2015 20:08 13,7 C 11,7 C 65 % 1023,7 hPa 0,0 l/m 2 min 0 min 38 W/m 12,6 km/h (3 Bft)
22.04.2015 20:10 13,7 C 11,7 C 65 % 1023,8 hPa 0,0 l/m 2 min 0 min 35 W/m 14,6 km/h (3 Bft)
22.04.2015 20:12 13,7 C 11,7 C 66 % 1023,8 hPa 0,0 l/m 2 min 0 min 33 W/m 14,6 km/h (3 Bft)
22.04.2015 20:14 13,6 C 11,7 C 66 % 1023,8 hPa 0,0 l/m 2 min 0 min 31 W/m 10,5 km/h (2 Bft)
22.04.2015 20:16 13,6 C 11,7 C 66 % 1023,7 hPa 0,0 l/m 2 min 0 min 27 W/m 10,5 km/h (2 Bft)
22.04.2015 20:18 13,6 C 11,7 C 66 % 1023,7 hPa 0,0 l/m 2 min 0 min 26 W/m 10,5 km/h (2 Bft)
22.04.2015 20:20 13,5 C 11,1 C 67 % 1023,7 hPa 0,0 l/m 2 min 0 min 24 W/m 14,6 km/h (3 Bft)
22.04.2015 20:22 13,5 C 11,1 C 67 % 1023,7 hPa 0,0 l/m 2 min 0 min 22 W/m 10,5 km/h (2 Bft)
22.04.2015 20:24 13,4 C 11,1 C 67 % 1023,7 hPa 0,0 l/m 2 min 0 min 20 W/m 10,5 km/h (2 Bft)
22.04.2015 20:26 13,4 C 11,1 C 67 % 1023,6 hPa 0,0 l/m 2 min 0 min 18 W/m 12,6 km/h (3 Bft)
22.04.2015 20:28 13,3 C 11,1 C 67 % 1023,6 hPa 0,0 l/m 0 min 0 min 16 W/m 14,6 km/h (3 Bft)
22.04.2015 20:30 13,3 C 11,1 C 67 % 1023,6 hPa 0,0 l/m 0 min 0 min 14 W/m 14,6 km/h (3 Bft)
22.04.2015 20:32 13,2 C 11,1 C 67 % 1023,6 hPa 0,0 l/m 0 min 0 min 12 W/m 14,6 km/h (3 Bft)
22.04.2015 20:34 13,2 C 11,1 C 68 % 1023,6 hPa 0,0 l/m 0 min 0 min 11 W/m 12,6 km/h (3 Bft)
22.04.2015 20:36 13,1 C 11,1 C 68 % 1023,6 hPa 0,0 l/m 0 min 0 min 10 W/m 10,5 km/h (2 Bft)
22.04.2015 20:38 13,1 C 11,1 C 68 % 1023,7 hPa 0,0 l/m 0 min 0 min 9 W/m 14,6 km/h (3 Bft)
22.04.2015 20:40 13,0 C 10,6 C 68 % 1023,7 hPa 0,0 l/m 0 min 0 min 7 W/m 10,5 km/h (2 Bft)
22.04.2015 20:42 12,9 C 10,6 C 68 % 1023,6 hPa 0,0 l/m 0 min 0 min 7 W/m 8,4 km/h (2 Bft)
22.04.2015 20:44 12,9 C 10,6 C 68 % 1023,6 hPa 0,0 l/m 0 min 0 min 6 W/m 8,4 km/h (2 Bft)
22.04.2015 20:46 12,8 C 10,6 C 69 % 1023,6 hPa 0,0 l/m 0 min 0 min 5 W/m 10,5 km/h (2 Bft)
22.04.2015 20:48 12,8 C 10,6 C 69 % 1023,6 hPa 0,0 l/m 0 min 0 min 5 W/m 12,6 km/h (3 Bft)
22.04.2015 20:50 12,8 C 10,6 C 69 % 1023,6 hPa 0,0 l/m 0 min 0 min 3 W/m 10,5 km/h (2 Bft)
22.04.2015 20:52 12,7 C 10,6 C 69 % 1023,6 hPa 0,0 l/m 0 min 0 min 0 W/m 8,4 km/h (2 Bft)
22.04.2015 20:54 12,6 C 10,6 C 69 % 1023,7 hPa 0,0 l/m 0 min 0 min 0 W/m 8,4 km/h (2 Bft)
22.04.2015 20:56 12,6 C 10,6 C 70 % 1023,7 hPa 0,0 l/m 0 min 0 min 0 W/m 12,6 km/h (3 Bft)
22.04.2015 20:58 12,5 C 10,6 C 70 % 1023,7 hPa 0,0 l/m 0 min 0 min 0 W/m 10,5 km/h (2 Bft)
22.04.2015 21:00 12,4 C 10,0 C 70 % 1023,7 hPa 0,0 l/m 0 min 0 min 0 W/m 12,6 km/h (3 Bft)
22.04.2015 21:02 12,4 C 10,0 C 70 % 1023,6 hPa 0,0 l/m 0 min 0 min 0 W/m 10,5 km/h (2 Bft)
22.04.2015 21:04 12,3 C 10,0 C 70 % 1023,7 hPa 0,0 l/m 0 min 0 min 0 W/m 12,6 km/h (3 Bft)
22.04.2015 21:06 12,2 C 10,0 C 70 % 1023,7 hPa 0,0 l/m 0 min 0 min 0 W/m 10,5 km/h (2 Bft)
22.04.2015 21:08 12,2 C 10,0 C 70 % 1023,8 hPa 0,0 l/m 0 min 0 min 0 W/m 10,5 km/h (2 Bft)
22.04.2015 21:10 12,2 C 10,0 C 71 % 1023,7 hPa 0,0 l/m 0 min 0 min 0 W/m 14,6 km/h (3 Bft)
22.04.2015 21:12 12,1 C 10,0 C 71 % 1023,8 hPa 0,0 l/m 0 min 0 min 0 W/m 12,6 km/h (3 Bft)
22.04.2015 21:14 12,1 C 10,0 C 71 % 1023,8 hPa 0,0 l/m 0 min 0 min 0 W/m 10,5 km/h (2 Bft)
22.04.2015 21:16 12,0 C 10,0 C 70 % 1023,8 hPa 0,0 l/m 0 min 0 min 0 W/m 14,6 km/h (3 Bft)
22.04.2015 21:18 11,9 C 10,0 C 70 % 1023,8 hPa 0,0 l/m 0 min 0 min 0 W/m 14,6 km/h (3 Bft)
22.04.2015 21:20 11,9 C 9,4 C 71 % 1023,7 hPa 0,0 l/m 0 min 0 min 0 W/m 10,5 km/h (2 Bft)
22.04.2015 21:22 11,9 C 9,4 C 71 % 1023,8 hPa 0,0 l/m 0 min 0 min 0 W/m 12,6 km/h (3 Bft)
22.04.2015 21:24 11,8 C 9,4 C 71 % 1023,7 hPa 0,0 l/m 0 min 0 min 0 W/m 10,5 km/h (2 Bft)
22.04.2015 21:26 11,8 C 9,4 C 71 % 1023,7 hPa 0,0 l/m 0 min 0 min 0 W/m 12,6 km/h (3 Bft)
22.04.2015 21:28 11,7 C 9,4 C 71 % 1023,8 hPa 0,0 l/m 0 min 0 min 0 W/m 8,4 km/h (2 Bft)
22.04.2015 21:30 11,7 C 9,4 C 71 % 1023,8 hPa 0,0 l/m 0 min 0 min 0 W/m 6,3 km/h (2 Bft)
22.04.2015 21:32 11,7 C 9,4 C 71 % 1023,8 hPa 0,0 l/m 0 min 0 min 0 W/m 6,3 km/h (2 Bft)
22.04.2015 21:34 11,7 C 9,4 C 71 % 1023,8 hPa 0,0 l/m 0 min 0 min 0 W/m 6,3 km/h (2 Bft)
22.04.2015 21:36 11,6 C 9,4 C 71 % 1023,8 hPa 0,0 l/m 0 min 0 min 0 W/m 4,2 km/h (1 Bft)
22.04.2015 21:38 11,6 C 9,4 C 71 % 1023,8 hPa 0,0 l/m 0 min 0 min 0 W/m 6,3 km/h (2 Bft)
22.04.2015 21:40 11,5 C 8,9 C 71 % 1023,8 hPa 0,0 l/m 0 min 0 min 0 W/m 4,2 km/h (1 Bft)
22.04.2015 21:42 11,4 C 8,9 C 71 % 1023,7 hPa 0,0 l/m 0 min 0 min 0 W/m 4,2 km/h (1 Bft)
22.04.2015 21:44 11,4 C 8,9 C 71 % 1023,8 hPa 0,0 l/m 0 min 0 min 0 W/m 6,3 km/h (2 Bft)
22.04.2015 21:46 11,3 C 8,3 C 72 % 1023,7 hPa 0,0 l/m 0 min 0 min 0 W/m 4,2 km/h (1 Bft)
22.04.2015 21:48 11,3 C 8,3 C 72 % 1023,8 hPa 0,0 l/m 0 min 0 min 0 W/m 4,2 km/h (1 Bft)
22.04.2015 21:50 11,2 C 8,3 C 72 % 1023,8 hPa 0,0 l/m 0 min 0 min 0 W/m 6,3 km/h (2 Bft)
22.04.2015 21:52 11,2 C 8,3 C 72 % 1023,7 hPa 0,0 l/m 0 min 0 min 0 W/m 6,3 km/h (2 Bft)
22.04.2015 21:54 11,2 C 8,3 C 72 % 1023,7 hPa 0,0 l/m 0 min 0 min 0 W/m 4,2 km/h (1 Bft)
22.04.2015 21:56 11,1 C 8,3 C 72 % 1023,7 hPa 0,0 l/m 0 min 0 min 0 W/m 4,2 km/h (1 Bft)
22.04.2015 21:58 11,0 C 7,8 C 72 % 1023,7 hPa 0,0 l/m 0 min 0 min 0 W/m 4,2 km/h (1 Bft)
22.04.2015 22:00 11,0 C 7,8 C 73 % 1023,7 hPa 0,0 l/m 0 min 0 min 0 W/m 4,2 km/h (1 Bft)
22.04.2015 22:02 10,9 C 7,8 C 73 % 1023,7 hPa 0,0 l/m 0 min 0 min 0 W/m 4,2 km/h (1 Bft)
22.04.2015 22:04 10,8 C 7,8 C 73 % 1023,7 hPa 0,0 l/m 0 min 0 min 0 W/m 4,2 km/h (1 Bft)
22.04.2015 22:06 10,8 C 7,8 C 73 % 1023,7 hPa 0,0 l/m 0 min 0 min 0 W/m 4,2 km/h (1 Bft)
22.04.2015 22:08 10,7 C 7,8 C 73 % 1023,7 hPa 0,0 l/m 0 min 0 min 0 W/m 4,2 km/h (1 Bft)
22.04.2015 22:10 10,7 C 7,8 C 74 % 1023,7 hPa 0,0 l/m 0 min 0 min 0 W/m 4,2 km/h (1 Bft)
22.04.2015 22:12 10,6 C 7,8 C 74 % 1023,7 hPa 0,0 l/m 0 min 0 min 0 W/m 6,3 km/h (2 Bft)
22.04.2015 22:14 10,6 C 7,8 C 74 % 1023,7 hPa 0,0 l/m 0 min 0 min 0 W/m 6,3 km/h (2 Bft)
22.04.2015 22:16 10,5 C 7,8 C 74 % 1023,7 hPa 0,0 l/m 0 min 0 min 0 W/m 6,3 km/h (2 Bft)
22.04.2015 22:18 10,4 C 7,8 C 74 % 1023,7 hPa 0,0 l/m 0 min 0 min 0 W/m 6,3 km/h (2 Bft)
22.04.2015 22:20 10,4 C 7,8 C 75 % 1023,6 hPa 0,0 l/m 0 min 0 min 0 W/m 8,4 km/h (2 Bft)
22.04.2015 22:22 10,3 C 7,8 C 75 % 1023,7 hPa 0,0 l/m 0 min 0 min 0 W/m 6,3 km/h (2 Bft)
22.04.2015 22:24 10,3 C 7,8 C 75 % 1023,7 hPa 0,0 l/m 0 min 0 min 0 W/m 8,4 km/h (2 Bft)
22.04.2015 22:26 10,3 C 8,3 C 75 % 1023,7 hPa 0,0 l/m 0 min 0 min 0 W/m 6,3 km/h (2 Bft)
22.04.2015 22:28 10,2 C 8,3 C 76 % 1023,7 hPa 0,0 l/m 0 min 0 min 0 W/m 4,2 km/h (1 Bft)
22.04.2015 22:30 10,2 C 8,3 C 76 % 1023,6 hPa 0,0 l/m 0 min 0 min 0 W/m 8,4 km/h (2 Bft)
22.04.2015 22:32 10,2 C 8,3 C 76 % 1023,6 hPa 0,0 l/m 0 min 0 min 0 W/m 6,3 km/h (2 Bft)
22.04.2015 22:34 10,1 C 8,3 C 76 % 1023,7 hPa 0,0 l/m 0 min 0 min 0 W/m 6,3 km/h (2 Bft)
22.04.2015 22:36 10,1 C 8,3 C 76 % 1023,7 hPa 0,0 l/m 0 min 0 min 0 W/m 8,4 km/h (2 Bft)
22.04.2015 22:38 10,0 C 8,3 C 76 % 1023,7 hPa 0,0 l/m 0 min 0 min 0 W/m 4,2 km/h (1 Bft)
22.04.2015 22:40 10,0 C 8,3 C 77 % 1023,7 hPa 0,0 l/m 0 min 0 min 0 W/m 6,3 km/h (2 Bft)
22.04.2015 22:42 10,0 C 8,3 C 77 % 1023,7 hPa 0,0 l/m 0 min 0 min 0 W/m 6,3 km/h (2 Bft)
22.04.2015 22:44 9,9 C 8,3 C 77 % 1023,7 hPa 0,0 l/m 0 min 0 min 0 W/m 8,4 km/h (2 Bft)
22.04.2015 22:46 9,9 C 8,3 C 77 % 1023,6 hPa 0,0 l/m 0 min 0 min 0 W/m 8,4 km/h (2 Bft)
22.04.2015 22:48 9,9 C 8,3 C 77 % 1023,6 hPa 0,0 l/m 0 min 0 min 0 W/m 8,4 km/h (2 Bft)
22.04.2015 22:50 9,8 C 8,3 C 77 % 1023,6 hPa 0,0 l/m 0 min 0 min 0 W/m 10,5 km/h (2 Bft)
22.04.2015 22:52 9,8 C 8,3 C 77 % 1023,6 hPa 0,0 l/m 0 min 0 min 0 W/m 8,4 km/h (2 Bft)
22.04.2015 22:54 9,8 C 8,3 C 78 % 1023,6 hPa 0,0 l/m 0 min 0 min 0 W/m 12,6 km/h (3 Bft)
22.04.2015 22:56 9,7 C 8,3 C 78 % 1023,6 hPa 0,0 l/m 0 min 0 min 0 W/m 10,5 km/h (2 Bft)
22.04.2015 22:58 9,7 C 8,3 C 78 % 1023,6 hPa 0,0 l/m 0 min 0 min 0 W/m 8,4 km/h (2 Bft)
22.04.2015 23:00 9,7 C 8,3 C 79 % 1023,6 hPa 0,0 l/m 0 min 0 min 0 W/m 12,6 km/h (3 Bft)
22.04.2015 23:02 9,6 C 8,3 C 79 % 1023,6 hPa 0,0 l/m 0 min 0 min 0 W/m 12,6 km/h (3 Bft)
22.04.2015 23:04 9,6 C 8,3 C 79 % 1023,5 hPa 0,0 l/m 0 min 0 min 0 W/m 12,6 km/h (3 Bft)
22.04.2015 23:06 9,6 C 8,3 C 79 % 1023,5 hPa 0,0 l/m 0 min 0 min 0 W/m 10,5 km/h (2 Bft)
22.04.2015 23:08 9,6 C 7,8 C 79 % 1023,5 hPa 0,0 l/m 0 min 0 min 0 W/m 10,5 km/h (2 Bft)
22.04.2015 23:10 9,5 C 7,8 C 79 % 1023,5 hPa 0,0 l/m 0 min 0 min 0 W/m 12,6 km/h (3 Bft)
22.04.2015 23:12 9,5 C 7,8 C 79 % 1023,5 hPa 0,0 l/m 0 min 0 min 0 W/m 10,5 km/h (2 Bft)
22.04.2015 23:14 9,5 C 7,8 C 80 % 1023,6 hPa 0,0 l/m 0 min 0 min 0 W/m 10,5 km/h (2 Bft)
22.04.2015 23:16 9,4 C 7,8 C 80 % 1023,5 hPa 0,0 l/m 0 min 0 min 0 W/m 12,6 km/h (3 Bft)
22.04.2015 23:18 9,4 C 7,8 C 80 % 1023,5 hPa 0,0 l/m 0 min 0 min 0 W/m 14,6 km/h (3 Bft)
22.04.2015 23:20 9,4 C 7,8 C 80 % 1023,5 hPa 0,0 l/m 0 min 0 min 0 W/m 12,6 km/h (3 Bft)
22.04.2015 23:22 9,4 C 7,8 C 80 % 1023,5 hPa 0,0 l/m 0 min 0 min 0 W/m 12,6 km/h (3 Bft)
22.04.2015 23:24 9,3 C 7,8 C 80 % 1023,4 hPa 0,0 l/m 0 min 0 min 0 W/m 12,6 km/h (3 Bft)
22.04.2015 23:26 9,3 C 7,8 C 81 % 1023,5 hPa 0,0 l/m 0 min 0 min 0 W/m 12,6 km/h (3 Bft)
22.04.2015 23:28 9,3 C 7,8 C 81 % 1023,4 hPa 0,0 l/m 0 min 0 min 0 W/m 10,5 km/h (2 Bft)
22.04.2015 23:30 9,3 C 7,8 C 81 % 1023,5 hPa 0,0 l/m 0 min 0 min 0 W/m 10,5 km/h (2 Bft)
22.04.2015 23:32 9,2 C 7,8 C 81 % 1023,5 hPa 0,0 l/m 0 min 0 min 0 W/m 6,3 km/h (2 Bft)
22.04.2015 23:34 9,2 C 7,8 C 81 % 1023,4 hPa 0,0 l/m 0 min 0 min 0 W/m 8,4 km/h (2 Bft)
22.04.2015 23:36 9,2 C 7,8 C 81 % 1023,4 hPa 0,0 l/m 0 min 0 min 0 W/m 12,6 km/h (3 Bft)
22.04.2015 23:38 9,2 C 7,8 C 81 % 1023,4 hPa 0,0 l/m 0 min 0 min 0 W/m 10,5 km/h (2 Bft)
22.04.2015 23:40 9,2 C 7,8 C 81 % 1023,4 hPa 0,0 l/m 0 min 0 min 0 W/m 8,4 km/h (2 Bft)
22.04.2015 23:42 9,1 C 7,8 C 81 % 1023,4 hPa 0,0 l/m 0 min 0 min 0 W/m 8,4 km/h (2 Bft)
22.04.2015 23:44 9,1 C 7,2 C 81 % 1023,5 hPa 0,0 l/m 0 min 0 min 0 W/m 6,3 km/h (2 Bft)
22.04.2015 23:46 9,1 C 7,2 C 81 % 1023,4 hPa 0,0 l/m 0 min 0 min 0 W/m 8,4 km/h (2 Bft)
22.04.2015 23:48 9,0 C 7,2 C 82 % 1023,4 hPa 0,0 l/m 0 min 0 min 0 W/m 6,3 km/h (2 Bft)
22.04.2015 23:50 9,0 C 7,2 C 82 % 1023,5 hPa 0,0 l/m 0 min 0 min 0 W/m 10,5 km/h (2 Bft)
22.04.2015 23:52 9,0 C 7,2 C 82 % 1023,5 hPa 0,0 l/m 0 min 0 min 0 W/m 10,5 km/h (2 Bft)
22.04.2015 23:54 8,9 C 7,2 C 82 % 1023,5 hPa 0,0 l/m 0 min 0 min 0 W/m 10,5 km/h (2 Bft)
22.04.2015 23:56 8,9 C 7,2 C 82 % 1023,4 hPa 0,0 l/m 0 min 0 min 0 W/m 10,5 km/h (2 Bft)
22.04.2015 23:58 8,8 C 7,2 C 82 % 1023,4 hPa 0,0 l/m 0 min 0 min 0 W/m 14,6 km/h (3 Bft)
_ Min-Zeit 06:16 05:54 17:28 23:24 - - - - 05:52
Minimum _ 3,2 C 2,8 C 57 % 1023,4 hPa - - - - 2,1 km/h (1 Bft)
_ Max-Zeit 17:02 16:18 06:46 01:10 00:00 10:54 00:00 13:10 12:58
Maximum _ 16,2 C 16,1 C 96 % 1030,8 hPa 0,0 l/m 2 min 0 min 1049 W/m 31,4 km/h
N-NO (5 Bft)
Durchschnitt _ 9,7 C 8,9 C 78 % 1027,3 hPa #0,0 l/m #7:06 h #0 min. 319 W/m 13,1 km/h (3 Bft)
© 2015 W. Hausmann